DW8769 Weather Reports


time (UTC)temp
C
wind
direction
speed
KPH
gust
KPH
rain 1hr
cm
rain 24hr
cm
rain mn
cm
humidity
%
barometer
mb
20260507123107 18 76 11.3 19.3 0.00 1.45 1.45 76 1010.3
20260507123007 18 60 11.3 17.7 0.00 1.45 1.45 76 1010.3
20260507122906 18 49 12.9 17.7 0.00 1.45 1.45 76 1010.3
20260507122806 18 44 12.9 17.7 0.00 1.45 1.45 76 1010.3
20260507122606 18 60 12.9 17.7 0.00 1.45 1.45 76 1010.3
20260507122507 18 50 12.9 19.3 0.00 1.45 1.45 77 1010.3
20260507122407 18 65 12.9 19.3 0.00 1.45 1.45 77 1010.3
20260507122308 18 53 12.9 19.3 0.00 1.45 1.45 77 1010.3
20260507122205 18 52 12.9 19.3 0.00 1.45 1.45 77 1010.3
20260507122105 18 62 12.9 19.3 0.00 1.45 1.45 77 1010.3
20260507122009 18 79 14.5 19.3 0.00 1.45 1.45 77 1010.3
20260507121906 18 55 12.9 19.3 0.00 1.45 1.45 76 1010.3
20260507121806 18 62 12.9 19.3 0.00 1.45 1.45 77 1010.3
20260507121606 18 38 12.9 19.3 0.00 1.45 1.45 77 1010.4
20260507121406 18 52 12.9 19.3 0.00 1.45 1.45 77 1010.4
20260507121307 18 59 12.9 19.3 0.00 1.45 1.45 77 1010.4
20260507121207 18 67 12.9 19.3 0.00 1.45 1.45 77 1010.4
20260507121017 18 62 12.9 20.9 0.00 1.45 1.45 77 1010.3
20260507120907 18 69 12.9 20.9 0.00 1.45 1.45 77 1010.4
20260507120807 18 58 12.9 20.9 0.00 1.45 1.45 77 1010.4
20260507120606 18 56 12.9 20.9 0.00 1.45 1.45 77 1010.4
20260507120509 18 75 12.9 20.9 0.00 1.45 1.45 77 1010.3
20260507120405 18 38 12.9 20.9 0.00 1.45 1.45 77 1010.3
20260507120308 18 43 12.9 20.9 0.00 1.45 1.45 77 1010.4
20260507120207 18 33 14.5 20.9 0.00 1.45 1.45 77 1010.4
20260507120107 18 35 12.9 20.9 0.00 1.45 1.45 77 1010.4
20260507120012 18 65 12.9 20.9 0.00 1.45 1.45 78 1010.4
20260507115907 18 53 14.5 20.9 0.00 1.45 1.45 78 1010.4
20260507115807 18 58 14.5 20.9 0.00 1.45 1.45 78 1010.5
20260507115707 18 70 14.5 20.9 0.00 1.45 1.45 78 1010.4
20260507115408 18 62 14.5 20.9 0.00 1.45 1.45 78 1010.4
20260507115307 18 40 16.1 20.9 0.00 1.45 1.45 79 1010.5
20260507115209 18 66 16.1 20.9 0.00 1.45 1.45 78 1010.5
20260507115106 18 32 14.5 20.9 0.00 1.45 1.45 78 1010.5
20260507115008 18 48 16.1 20.9 0.00 1.45 1.45 78 1010.5
20260507114807 18 58 16.1 22.5 0.00 1.45 1.45 78 1010.6
20260507114706 18 64 16.1 22.5 0.00 1.45 1.45 79 1010.5
20260507114605 18 62 16.1 22.5 0.00 1.45 1.45 79 1010.5
20260507114508 18 59 14.5 22.5 0.00 1.45 1.45 79 1010.7
20260507114307 18 47 16.1 22.5 0.00 1.45 1.45 79 1010.7
20260507114105 18 57 14.5 22.5 0.00 1.45 1.45 79 1010.7
20260507114008 18 52 14.5 22.5 0.00 1.45 1.45 79 1010.8
20260507113908 18 61 14.5 22.5 0.00 1.45 1.45 79 1010.7
20260507113806 18 57 14.5 22.5 0.00 1.45 1.45 79 1010.6
20260507113707 18 56 12.9 22.5 0.00 1.45 1.45 79 1010.7
20260507113608 18 55 12.9 22.5 0.00 1.45 1.45 80 1010.7
20260507113406 18 60 12.9 22.5 0.00 1.45 1.45 80 1010.7
20260507113306 18 42 12.9 22.5 0.00 1.45 1.45 80 1010.8
20260507113205 18 59 12.9 22.5 0.00 1.45 1.45 80 1010.8
20260507113108 18 28 12.9 22.5 0.00 1.45 1.45 80 1010.7
20260507112907 18 50 12.9 24.1 0.03 1.45 1.45 81 1010.8
20260507112809 18 111 12.9 24.1 0.03 1.45 1.45 81 1010.9
20260507112707 18 68 12.9 24.1 0.05 1.45 1.45 81 1010.9
20260507112606 18 51 12.9 24.1 0.05 1.45 1.45 81 1010.8
20260507112508 18 52 12.9 24.1 0.08 1.45 1.45 81 1010.9
20260507112407 18 70 12.9 24.1 0.13 1.45 1.45 81 1011.0
20260507112307 18 68 12.9 24.1 0.18 1.45 1.45 82 1011.0
20260507112205 18 85 14.5 24.1 0.25 1.45 1.45 82 1011.0
20260507112009 18 44 14.5 22.5 0.51 1.45 1.45 82 1011.2
20260507111907 18 43 14.5 22.5 0.56 1.45 1.45 82 1011.2
20260507111805 18 48 14.5 22.5 0.76 1.45 1.45 82 1011.2
20260507111707 17 83 14.5 22.5 0.99 1.45 1.45 82 1011.2
20260507111607 17 68 14.5 22.5 0.99 1.45 1.45 82 1011.2
20260507111509 17 35 14.5 22.5 1.09 1.45 1.45 82 1011.2
20260507111407 17 87 14.5 22.5 1.14 1.45 1.45 83 1011.1
20260507111206 17 66 14.5 22.5 1.24 1.45 1.45 83 1011.2
20260507111009 17 83 14.5 20.9 1.32 1.45 1.45 83 1011.3
20260507110907 17 27 14.5 20.9 1.37 1.45 1.45 83 1011.3
20260507110807 17 62 14.5 20.9 1.37 1.45 1.45 83 1011.3
20260507110708 17 61 14.5 20.9 1.40 1.45 1.45 83 1011.2
20260507110608 17 51 14.5 20.9 1.40 1.45 1.45 83 1011.2
20260507110306 17 46 14.5 20.9 1.45 1.45 1.45 83 1011.3
20260507110107 17 64 14.5 20.9 1.45 1.45 1.45 84 1011.3
20260507110011 17 58 14.5 20.9 1.45 1.45 1.45 84 1011.2
20260507105907 17 68 14.5 20.9 1.45 1.45 1.45 84 1011.3
20260507105806 17 50 14.5 20.9 1.45 1.45 1.45 84 1011.3
20260507105706 17 68 14.5 20.9 1.45 1.45 1.45 84 1011.3
20260507105610 17 65 14.5 20.9 1.45 1.45 1.45 84 1011.2
20260507105508 17 60 12.9 19.3 1.45 1.45 1.45 84 1011.3
20260507105406 17 62 12.9 19.3 1.45 1.45 1.45 84 1011.3
20260507105307 17 75 11.3 19.3 1.45 1.45 1.45 84 1011.2
20260507105205 17 58 11.3 19.3 1.45 1.45 1.45 85 1011.2
20260507105105 17 44 9.7 19.3 1.45 1.45 1.45 85 1011.2
20260507104808 17 62 6.4 19.3 1.45 1.45 1.45 85 1011.1
20260507104707 17 63 4.8 19.3 1.45 1.45 1.45 86 1011.1
20260507104607 17 66 4.8 17.7 1.45 1.45 1.45 86 1011.1
20260507104507 17 39 4.8 17.7 1.45 1.45 1.45 86 1011.1
20260507104407 17 54 3.2 17.7 1.45 1.45 1.45 86 1011.2
20260507104307 17 14 3.2 11.3 1.45 1.45 1.45 87 1011.1
20260507104207 17 14 3.2 11.3 1.45 1.45 1.45 87 1011.1
20260507104106 17 21 3.2 9.7 1.45 1.45 1.45 87 1011.1
20260507104012 17 78 3.2 9.7 1.45 1.45 1.45 87 1011.1
20260507103908 17 32 3.2 12.9 1.45 1.45 1.45 87 1011.1
20260507103806 17 7 3.2 12.9 1.45 1.45 1.45 87 1011.2
20260507103706 17 335 3.2 12.9 1.45 1.45 1.45 87 1011.2
20260507103508 17 70 3.2 12.9 1.45 1.45 1.45 86 1011.2
20260507103406 17 60 3.2 12.9 1.45 1.45 1.45 86 1011.1
20260507103205 17 56 4.8 12.9 1.45 1.45 1.45 86 1011.1
20260507103107 16 50 3.2 12.9 1.45 1.45 1.45 86 1011.1
20260507103009 16 53 3.2 9.7 1.45 1.45 1.45 85 1011.1
20260507102907 16 10 3.2 9.7 1.45 1.45 1.45 85 1011.0
20260507102807 16 47 4.8 9.7 1.45 1.45 1.45 85 1011.1
20260507102507 16 287 4.8 12.9 1.37 1.37 1.37 84 1011.1
20260507102406 17 345 4.8 12.9 1.35 1.35 1.35 84 1011.2
20260507102205 17 312 6.4 12.9 1.19 1.19 1.19 84 1011.2
20260507102105 17 290 6.4 12.9 1.09 1.09 1.09 84 1011.2
20260507101707 17 53 9.7 19.3 0.46 0.46 0.46 83 1011.3
20260507101607 17 71 9.7 19.3 0.41 0.41 0.41 83 1011.3
20260507101507 17 58 11.3 19.3 0.36 0.36 0.36 83 1011.2
20260507101406 17 78 11.3 19.3 0.33 0.33 0.33 83 1011.2
20260507101207 17 123 11.3 19.3 0.23 0.23 0.23 82 1011.2
20260507101107 17 73 11.3 19.3 0.20 0.20 0.20 82 1011.2
20260507101010 17 9 9.7 19.3 0.15 0.15 0.15 81 1011.3
20260507100907 17 54 9.7 19.3 0.10 0.10 0.10 81 1011.2
20260507100708 18 64 6.4 19.3 0.05 0.05 0.05 80 1011.1
20260507100606 18 54 6.4 19.3 0.05 0.05 0.05 79 1011.2
20260507100509 18 70 6.4 17.7 0.03 0.03 0.03 79 1011.2
20260507100305 18 41 4.8 14.5 0.00 0.00 0.00 78 1011.2
20260507100207 18 330 6.4 12.9 0.00 0.00 0.00 78 1011.2
20260507100107 18 141 6.4 14.5 0.00 0.00 0.00 78 1011.2
20260507100009 18 48 6.4 14.5 0.00 0.00 0.00 78 1011.3
20260507095906 18 344 6.4 14.5 0.00 0.00 0.00 78 1011.3
20260507095713 18 62 6.4 14.5 0.00 0.00 0.00 77 1011.2
20260507095605 18 44 6.4 14.5 0.00 0.00 0.00 77 1011.4
20260507095508 18 82 6.4 14.5 0.00 0.00 0.00 76 1011.3
20260507095406 18 55 4.8 14.5 0.00 0.00 0.00 76 1011.4
20260507095207 18 61 4.8 11.3 0.00 0.00 0.00 76 1011.4
20260507095107 18 80 4.8 11.3 0.00 0.00 0.00 76 1011.4
20260507094906 18 48 6.4 11.3 0.00 0.00 0.00 76 1011.4
20260507094808 18 91 6.4 11.3 0.00 0.00 0.00 76 1011.3
20260507094705 18 87 6.4 11.3 0.00 0.00 0.00 76 1011.4
20260507094509 18 36 6.4 12.9 0.00 0.00 0.00 76 1011.3
20260507094405 18 50 8.0 12.9 0.00 0.00 0.00 76 1011.4
20260507094306 18 71 8.0 12.9 0.00 0.00 0.00 76 1011.4
20260507094206 18 63 8.0 12.9 0.00 0.00 0.00 76 1011.4
20260507094106 18 83 8.0 12.9 0.00 0.00 0.00 75 1011.4
20260507094010 18 77 8.0 12.9 0.00 0.00 0.00 75 1011.4
20260507093906 18 77 6.4 12.9 0.00 0.00 0.00 75 1011.4
20260507093806 18 54 6.4 12.9 0.00 0.00 0.00 74 1011.4
20260507093705 18 60 6.4 12.9 0.00 0.00 0.00 74 1011.4
20260507093606 18 54 4.8 12.9 0.00 0.00 0.00 74 1011.3
20260507093509 18 53 4.8 12.9 0.00 0.00 0.00 74 1011.4
20260507093407 18 60 4.8 11.3 0.00 0.00 0.00 73 1011.3
20260507093208 18 46 4.8 11.3 0.00 0.00 0.00 73 1011.3
20260507093107 18 70 3.2 11.3 0.00 0.00 0.00 73 1011.4
20260507092909 18 29 3.2 12.9 0.00 0.00 0.00 73 1011.4
20260507092808 18 76 3.2 12.9 0.00 0.00 0.00 73 1011.3
20260507092607 18 94 3.2 12.9 0.00 0.00 0.00 73 1011.4
20260507092507 18 94 3.2 12.9 0.00 0.00 0.00 73 1011.4
20260507092407 18 212 3.2 12.9 0.00 0.00 0.00 73 1011.4
20260507092310 18 79 3.2 12.9 0.00 0.00 0.00 72 1011.4
20260507092212 18 67 1.6 12.9 0.00 0.00 0.00 72 1011.4
20260507092106 18 51 1.6 11.3 0.00 0.00 0.00 73 1011.5
20260507091907 18 28 1.6 6.4 0.00 0.00 0.00 73 1011.4
20260507091807 18 17 1.6 6.4 0.00 0.00 0.00 73 1011.4
20260507091607 18 17 1.6 6.4 0.00 0.00 0.00 73 1011.5
20260507091508 18 22 3.2 8.0 0.00 0.00 0.00 73 1011.5
20260507091406 18 92 1.6 8.0 0.00 0.00 0.00 73 1011.5
20260507091306 18 36 3.2 8.0 0.00 0.00 0.00 73 1011.4
20260507091206 18 40 3.2 8.0 0.00 0.00 0.00 73 1011.4
20260507090907 18 40 3.2 9.7 0.00 0.00 0.00 73 1011.3
20260507090807 18 46 3.2 9.7 0.00 0.00 0.00 73 1011.4
20260507090707 18 31 3.2 9.7 0.00 0.00 0.00 73 1011.4
20260507090508 18 335 3.2 9.7 0.00 0.00 0.00 73 1011.4
20260507090406 18 303 4.8 9.7 0.00 0.00 0.00 73 1011.3
20260507090206 18 60 3.2 12.9 0.00 0.00 0.00 73 1011.2
20260507090108 18 48 3.2 12.9 0.00 0.00 0.00 73 1011.3
20260507085906 18 347 4.8 12.9 0.00 0.00 0.00 73 1011.2
20260507085707 18 276 4.8 12.9 0.00 0.00 0.00 73 1011.3
20260507085609 18 295 4.8 16.1 0.00 0.00 0.00 73 1011.4
20260507085509 18 330 4.8 16.1 0.00 0.00 0.00 73 1011.3
20260507085406 17 16 4.8 16.1 0.00 0.00 0.00 73 1011.3
20260507085307 17 65 4.8 16.1 0.00 0.00 0.00 73 1011.3
20260507085211 17 53 4.8 16.1 0.00 0.00 0.00 73 1011.3
20260507085105 17 4 4.8 16.1 0.00 0.00 0.00 73 1011.2
20260507085009 17 341 4.8 16.1 0.00 0.00 0.00 72 1011.2
20260507084905 17 249 3.2 16.1 0.00 0.00 0.00 72 1011.3
20260507084806 17 288 3.2 16.1 0.00 0.00 0.00 72 1011.4
20260507084707 17 302 3.2 9.7 0.00 0.00 0.00 72 1011.4
20260507084605 17 317 4.8 9.7 0.00 0.00 0.00 72 1011.3
20260507084508 17 41 4.8 9.7 0.00 0.00 0.00 72 1011.3
20260507084407 17 266 4.8 12.9 0.00 0.00 0.00 72 1011.4
20260507084106 17 291 4.8 14.5 0.00 0.00 0.00 72 1011.3
20260507084009 17 348 6.4 14.5 0.00 0.00 0.00 72 1011.2
20260507083908 17 295 6.4 14.5 0.00 0.00 0.00 72 1011.2
20260507083808 17 296 6.4 16.1 0.00 0.00 0.00 72 1011.2
20260507083707 17 285 6.4 16.1 0.00 0.00 0.00 72 1011.2
20260507083608 17 278 6.4 16.1 0.00 0.00 0.00 72 1011.2
20260507083508 17 297 6.4 16.1 0.00 0.00 0.00 72 1011.2
20260507083407 17 261 6.4 16.1 0.00 0.00 0.00 72 1011.2
20260507083305 17 335 6.4 16.1 0.00 0.00 0.00 72 1011.2
20260507083206 17 247 6.4 16.1 0.00 0.00 0.00 72 1011.2
20260507083106 17 325 6.4 16.1 0.00 0.00 0.00 72 1011.2
20260507083007 17 220 6.4 16.1 0.00 0.00 0.00 72 1011.3
20260507082905 17 317 4.8 14.5 0.00 0.00 0.00 71 1011.2
20260507082806 17 314 4.8 14.5 0.00 0.00 0.00 71 1011.2
20260507082706 17 321 6.4 14.5 0.00 0.00 0.00 71 1011.3
20260507082606 17 281 6.4 16.1 0.00 0.00 0.00 71 1011.2
20260507082508 17 234 6.4 16.1 0.00 0.00 0.00 71 1011.2
20260507082406 17 316 6.4 16.1 0.00 0.00 0.00 71 1011.3
20260507082306 17 187 6.4 16.1 0.00 0.00 0.00 71 1011.3
20260507082207 17 238 6.4 16.1 0.00 0.00 0.00 71 1011.3
20260507082105 17 316 6.4 16.1 0.00 0.00 0.00 71 1011.3
20260507082007 17 312 6.4 16.1 0.00 0.00 0.00 71 1011.2
20260507081809 17 276 8.0 16.1 0.00 0.00 0.00 71 1011.2
20260507081607 17 293 6.4 17.7 0.00 0.00 0.00 71 1011.2
20260507081507 16 258 6.4 17.7 0.00 0.00 0.00 71 1011.2
20260507081405 16 339 6.4 17.7 0.00 0.00 0.00 71 1011.2
20260507081306 17 357 6.4 17.7 0.00 0.00 0.00 71 1011.2
20260507081206 17 229 6.4 17.7 0.00 0.00 0.00 71 1011.2
20260507081105 16 269 6.4 17.7 0.00 0.00 0.00 71 1011.2
20260507081007 16 256 6.4 17.7 0.00 0.00 0.00 71 1011.2
20260507080907 16 277 6.4 17.7 0.00 0.00 0.00 71 1011.3
20260507080805 16 264 6.4 17.7 0.00 0.00 0.00 71 1011.2
20260507080707 16 358 6.4 17.7 0.00 0.00 0.00 71 1011.3
20260507080605 16 229 8.0 17.7 0.00 0.00 0.00 71 1011.3
20260507080507 16 293 8.0 17.7 0.00 0.00 0.00 71 1011.2
20260507080406 16 267 8.0 17.7 0.00 0.00 0.00 71 1011.3
20260507080308 16 303 8.0 17.7 0.00 0.00 0.00 71 1011.2
20260507080207 16 251 8.0 17.7 0.00 0.00 0.00 71 1011.2
20260507080107 16 320 8.0 17.7 0.00 0.00 0.00 71 1011.3
20260507080014 16 7 6.4 17.7 0.00 0.00 0.00 71 1011.2
20260507075905 16 308 6.4 16.1 0.00 0.00 0.00 71 1011.1
20260507075805 16 335 6.4 16.1 0.00 0.00 0.00 71 1011.2
20260507075705 16 273 4.8 14.5 0.00 0.00 0.00 71 1011.2
20260507075606 16 289 4.8 14.5 0.00 0.00 0.00 71 1011.2
20260507075508 16 293 4.8 14.5 0.00 0.00 0.00 71 1011.2
20260507075407 16 303 4.8 14.5 0.00 0.00 0.00 71 1011.2
20260507075307 16 296 4.8 16.1 0.00 0.00 0.00 71 1011.2
20260507075205 16 229 4.8 16.1 0.00 0.00 0.00 71 1011.3
20260507075106 16 215 4.8 16.1 0.00 0.00 0.00 71 1011.3
20260507075009 16 321 4.8 16.1 0.00 0.00 0.00 71 1011.3
20260507074906 16 310 4.8 16.1 0.00 0.00 0.00 71 1011.3
20260507074707 16 335 4.8 16.1 0.00 0.00 0.00 71 1011.4
20260507074607 16 258 4.8 16.1 0.00 0.00 0.00 70 1011.4
20260507074405 16 330 4.8 14.5 0.00 0.00 0.00 71 1011.3
20260507074306 16 210 4.8 9.7 0.00 0.00 0.00 71 1011.3
20260507074207 16 186 4.8 9.7 0.00 0.00 0.00 71 1011.3
20260507074106 16 320 4.8 8.0 0.00 0.00 0.00 71 1011.3
20260507074009 16 262 4.8 9.7 0.00 0.00 0.00 71 1011.3
20260507073906 16 255 4.8 12.9 0.00 0.00 0.00 71 1011.3
20260507073807 16 297 6.4 16.1 0.00 0.00 0.00 71 1011.4
20260507073706 16 299 4.8 16.1 0.00 0.00 0.00 71 1011.3
20260507073607 16 298 4.8 16.1 0.00 0.00 0.00 71 1011.3
20260507073509 16 238 4.8 16.1 0.00 0.00 0.00 71 1011.3
20260507073407 16 238 4.8 16.1 0.00 0.00 0.00 71 1011.3
20260507073306 16 201 4.8 16.1 0.00 0.00 0.00 71 1011.3
20260507073107 16 330 4.8 16.1 0.00 0.00 0.00 72 1011.2
20260507073007 16 325 4.8 16.1 0.00 0.00 0.00 72 1011.3
20260507072907 16 306 4.8 16.1 0.00 0.00 0.00 72 1011.3
20260507072806 16 264 3.2 9.7 0.00 0.00 0.00 73 1011.2
20260507072706 16 325 3.2 9.7 0.00 0.00 0.00 73 1011.3
20260507072606 16 247 3.2 9.7 0.00 0.00 0.00 73 1011.2
20260507072508 16 318 3.2 9.7 0.00 0.00 0.00 73 1011.2
20260507072405 16 262 3.2 9.7 0.00 0.00 0.00 73 1011.2
20260507072308 16 247 3.2 9.7 0.00 0.00 0.00 73 1011.2
20260507072206 16 228 3.2 9.7 0.00 0.00 0.00 74 1011.2
20260507072107 16 358 3.2 9.7 0.00 0.00 0.00 74 1011.2
20260507072007 16 216 3.2 9.7 0.00 0.00 0.00 74 1011.2
20260507071907 16 348 3.2 9.7 0.00 0.00 0.00 74 1011.2
20260507071808 16 245 3.2 9.7 0.00 0.00 0.00 74 1011.2
20260507071708 16 285 3.2 9.7 0.00 0.00 0.00 74 1011.2
20260507071509 16 302 3.2 9.7 0.00 0.00 0.00 75 1011.2
20260507071405 16 264 3.2 8.0 0.00 0.00 0.00 75 1011.2
20260507071306 16 345 3.2 8.0 0.00 0.00 0.00 75 1011.2
20260507071106 15 320 3.2 8.0 0.00 0.00 0.00 75 1011.2
20260507071008 15 321 3.2 8.0 0.00 0.00 0.00 75 1011.1
20260507070906 15 281 3.2 8.0 0.00 0.00 0.00 75 1011.1
20260507070805 15 210 3.2 6.4 0.00 0.00 0.00 75 1011.2
20260507070705 15 231 3.2 6.4 0.00 0.00 0.00 75 1011.1
20260507070607 15 260 3.2 6.4 0.00 0.00 0.00 75 1011.1
20260507070507 15 236 3.2 6.4 0.00 0.00 0.00 75 1011.1
20260507070405 15 231 3.2 6.4 0.00 0.00 0.00 75 1011.2
20260507070305 15 210 3.2 8.0 0.00 0.00 0.00 75 1011.1
20260507070206 15 261 3.2 8.0 0.00 0.00 0.00 76 1011.1
20260507070107 15 286 4.8 12.9 0.00 0.00 0.00 76 1011.1
20260507070012 15 222 4.8 12.9 0.00 0.00 0.00 76 1011.1
20260507065905 15 219 4.8 12.9 0.00 0.00 0.00 76 1011.1
20260507065704 15 282 4.8 12.9 0.00 0.00 0.00 76 1011.1
20260507065606 15 235 4.8 12.9 0.00 0.00 0.00 76 1011.2
20260507065506 15 343 4.8 12.9 0.00 0.00 0.00 76 1011.2
20260507065404 15 352 4.8 12.9 0.00 0.00 0.00 76 1011.2
20260507065306 15 311 4.8 12.9 0.00 0.00 0.00 76 1011.1
20260507065205 15 330 4.8 12.9 0.00 0.00 0.00 76 1011.2
20260507065106 15 309 4.8 9.7 0.00 0.00 0.00 76 1011.1
20260507065007 15 265 4.8 9.7 0.00 0.00 0.00 76 1011.1
20260507064905 15 277 4.8 9.7 0.00 0.00 0.00 76 1011.2
20260507064704 15 318 4.8 9.7 0.00 0.00 0.00 76 1011.1
20260507064604 15 346 4.8 9.7 0.00 0.00 0.00 76 1011.1
20260507064507 15 259 4.8 9.7 0.00 0.00 0.00 76 1011.1
20260507064406 15 345 4.8 9.7 0.00 0.00 0.00 76 1011.1
20260507064304 15 266 4.8 9.7 0.00 0.00 0.00 75 1011.1
20260507064205 15 244 6.4 12.9 0.00 0.00 0.00 75 1011.1
20260507064105 15 237 6.4 12.9 0.00 0.00 0.00 75 1011.1
20260507064007 15 231 6.4 14.5 0.00 0.00 0.00 75 1011.1
20260507063905 15 229 6.4 14.5 0.00 0.00 0.00 75 1011.1
20260507063805 15 236 6.4 14.5 0.00 0.00 0.00 75 1011.1
20260507063704 15 317 6.4 14.5 0.00 0.00 0.00 75 1011.1
20260507063604 15 240 8.0 14.5 0.00 0.00 0.00 75 1011.1
20260507063506 15 252 8.0 14.5 0.00 0.00 0.00 75 1011.1
20260507063405 15 254 8.0 14.5 0.00 0.00 0.00 75 1011.1
20260507063306 15 232 8.0 14.5 0.00 0.00 0.00 75 1011.0
20260507063205 15 257 6.4 14.5 0.00 0.00 0.00 75 1010.9
20260507063106 15 231 6.4 14.5 0.00 0.00 0.00 75 1011.0
20260507062707 15 246 4.8 14.5 0.00 0.00 0.00 74 1011.0
20260507062605 15 293 4.8 14.5 0.00 0.00 0.00 73 1011.0
20260507062507 15 259 4.8 14.5 0.00 0.00 0.00 73 1011.0
20260507062404 15 243 3.2 14.5 0.00 0.00 0.00 72 1011.0
20260507062306 16 253 3.2 12.9 0.00 0.00 0.00 72 1011.0
20260507062204 16 207 3.2 9.7 0.00 0.00 0.00 71 1011.0
20260507062105 16 256 3.2 9.7 0.00 0.00 0.00 71 1010.9
20260507062006 16 171 3.2 9.7 0.00 0.00 0.00 71 1010.8
20260507061905 16 206 3.2 11.3 0.00 0.00 0.00 71 1010.8
20260507061805 16 2 1.6 6.4 0.00 0.00 0.00 72 1010.9
20260507061607 16 335 1.6 6.4 0.00 0.00 0.00 72 1010.8
20260507061406 16 330 1.6 6.4 0.00 0.00 0.00 72 1010.8
20260507061305 16 290 1.6 6.4 0.00 0.00 0.00 72 1010.8
20260507061208 16 299 1.6 4.8 0.00 0.00 0.00 73 1010.8
20260507061107 16 325 1.6 4.8 0.00 0.00 0.00 73 1010.7
20260507061008 16 325 1.6 4.8 0.00 0.00 0.00 73 1010.7
20260507060906 16 325 3.2 4.8 0.00 0.00 0.00 73 1010.7
20260507060805 16 325 3.2 6.4 0.00 0.00 0.00 73 1010.7
20260507060705 16 231 3.2 6.4 0.00 0.00 0.00 73 1010.6
20260507060508 16 249 3.2 6.4 0.00 0.00 0.00 73 1010.6
20260507060406 16 249 3.2 6.4 0.00 0.00 0.00 73 1010.6
20260507060304 16 257 3.2 6.4 0.00 0.00 0.00 73 1010.6
20260507060206 16 257 3.2 6.4 0.00 0.00 0.00 73 1010.6
20260507060111 16 261 3.2 6.4 0.00 0.00 0.00 73 1010.6
20260507060010 16 213 3.2 6.4 0.00 0.00 0.00 73 1010.6
20260507055909 16 287 3.2 6.4 0.00 0.00 0.00 73 1010.5
20260507055808 16 67 4.8 6.4 0.00 0.00 0.00 73 1010.5
20260507055705 16 256 4.8 8.0 0.00 0.00 0.00 73 1010.4
20260507055508 16 301 4.8 8.0 0.00 0.00 0.00 73 1010.5
20260507055407 16 260 4.8 8.0 0.00 0.00 0.00 73 1010.5
20260507055306 16 292 4.8 8.0 0.00 0.00 0.00 73 1010.4
20260507055207 16 299 4.8 8.0 0.00 0.00 0.00 73 1010.4
20260507055107 16 212 4.8 8.0 0.00 0.00 0.00 73 1010.4
20260507054908 16 314 3.2 8.0 0.00 0.00 0.00 73 1010.4
20260507054607 16 284 3.2 8.0 0.00 0.00 0.00 74 1010.4
20260507054509 16 298 3.2 8.0 0.00 0.00 0.00 74 1010.3
20260507054407 16 253 3.2 8.0 0.00 0.00 0.00 74 1010.3
20260507054307 16 266 3.2 8.0 0.00 0.00 0.00 74 1010.3
20260507054208 16 8 1.6 8.0 0.00 0.00 0.00 74 1010.3
20260507054108 16 287 1.6 8.0 0.00 0.00 0.00 75 1010.2
20260507054009 15 295 1.6 8.0 0.00 0.00 0.00 75 1010.3
20260507053906 15 256 1.6 4.8 0.00 0.00 0.00 75 1010.3
20260507053708 15 286 1.6 6.4 0.00 0.00 0.00 75 1010.3
20260507053608 15 286 1.6 6.4 0.00 0.00 0.00 76 1010.3
20260507053511 15 286 1.6 6.4 0.00 0.00 0.00 76 1010.3
20260507053406 15 356 1.6 6.4 0.00 0.00 0.00 76 1010.3
20260507053306 15 356 1.6 6.4 0.00 0.00 0.00 76 1010.3
20260507053206 15 356 1.6 6.4 0.00 0.00 0.00 76 1010.2
20260507053012 15 356 1.6 6.4 0.00 0.00 0.00 76 1010.2
20260507052907 15 356 1.6 6.4 0.00 0.00 0.00 76 1010.2
20260507052707 15 347 0.0 4.8 0.00 0.00 0.00 76 1010.3
20260507052607 15 347 0.0 4.8 0.00 0.00 0.00 76 1010.3
20260507052407 15 246 1.6 4.8 0.00 0.00 0.00 77 1010.3
20260507052207 15 246 1.6 4.8 0.00 0.00 0.00 77 1010.4
20260507052106 15 246 1.6 4.8 0.00 0.00 0.00 77 1010.3
20260507052009 15 246 1.6 4.8 0.00 0.00 0.00 77 1010.3
20260507051707 15 246 0.0 4.8 0.00 0.00 0.00 77 1010.3
20260507051507 15 246 0.0 4.8 0.00 0.00 0.00 77 1010.3
20260507051407 15 260 0.0 3.2 0.00 0.00 0.00 77 1010.3
20260507051306 15 260 0.0 3.2 0.00 0.00 0.00 77 1010.3
20260507051207 15 260 0.0 3.2 0.00 0.00 0.00 77 1010.4
20260507051105 15 230 0.0 0.0 0.00 0.00 0.00 77 1010.4
20260507051009 15 230 0.0 0.0 0.00 0.00 0.00 77 1010.3
20260507050908 15 230 0.0 1.6 0.00 0.00 0.00 77 1010.3
20260507050806 15 230 0.0 1.6 0.00 0.00 0.00 77 1010.3
20260507050706 15 230 0.0 3.2 0.00 0.00 0.00 77 1010.3
20260507050608 15 230 0.0 3.2 0.00 0.00 0.00 78 1010.3
20260507050507 15 230 1.6 4.8 0.00 0.00 0.00 78 1010.3
20260507050407 15 230 1.6 6.4 0.00 0.00 0.00 78 1010.3
20260507050306 15 230 1.6 6.4 0.00 0.00 0.00 78 1010.3
20260507050206 15 230 3.2 6.4 0.00 0.00 0.00 78 1010.3
20260507050007 15 230 3.2 6.4 0.00 0.00 0.00 78 1010.3
20260507045906 15 230 3.2 6.4 0.00 0.00 0.00 78 1010.4
20260507045804 14 230 3.2 8.0 0.00 0.00 0.00 78 1010.3
20260507045605 14 230 3.2 8.0 0.00 0.00 0.00 78 1010.4
20260507045505 14 230 3.2 14.5 0.00 0.00 0.00 78 1010.4
20260507045405 14 248 4.8 14.5 0.00 0.00 0.00 79 1010.4
20260507045306 14 251 4.8 14.5 0.00 0.00 0.00 79 1010.4
20260507045204 14 240 4.8 14.5 0.00 0.00 0.00 79 1010.4
20260507045106 14 248 4.8 14.5 0.00 0.00 0.00 79 1010.3
20260507045006 14 276 4.8 14.5 0.00 0.00 0.00 79 1010.3
20260507044704 14 243 4.8 14.5 0.00 0.00 0.00 79 1010.3
20260507044604 14 241 6.4 14.5 0.00 0.00 0.00 79 1010.2
20260507044506 14 205 6.4 11.3 0.00 0.00 0.00 79 1010.2
20260507044404 14 16 6.4 12.9 0.00 0.00 0.00 79 1010.2
20260507044304 14 227 6.4 12.9 0.00 0.00 0.00 79 1010.1
20260507044204 14 2 6.4 12.9 0.00 0.00 0.00 79 1010.2
20260507044107 14 242 6.4 12.9 0.00 0.00 0.00 78 1010.2
20260507044007 14 226 6.4 12.9 0.00 0.00 0.00 79 1010.2
20260507043906 14 231 6.4 12.9 0.00 0.00 0.00 78 1010.3
20260507043806 14 221 6.4 12.9 0.00 0.00 0.00 78 1010.3
20260507043706 15 273 6.4 12.9 0.00 0.00 0.00 78 1010.2
20260507043606 15 226 6.4 12.9 0.00 0.00 0.00 78 1010.3
20260507043407 15 232 4.8 12.9 0.00 0.00 0.00 77 1010.2
20260507043206 15 213 3.2 11.3 0.00 0.00 0.00 76 1010.1
20260507043105 15 164 3.2 11.3 0.00 0.00 0.00 75 1010.2
20260507043006 15 237 3.2 11.3 0.00 0.00 0.00 75 1010.1
20260507042906 15 230 3.2 11.3 0.00 0.00 0.00 75 1010.2
20260507042805 15 230 1.6 11.3 0.00 0.00 0.00 75 1010.1
20260507042704 15 229 1.6 14.5 0.00 0.00 0.00 74 1010.1
20260507042604 15 247 1.6 14.5 0.00 0.00 0.00 74 1010.1
20260507042507 15 247 1.6 14.5 0.00 0.00 0.00 74 1010.1
20260507042405 15 247 1.6 14.5 0.00 0.00 0.00 74 1010.1
20260507042307 15 247 1.6 14.5 0.00 0.00 0.00 74 1010.0
20260507042205 15 247 1.6 14.5 0.00 0.00 0.00 73 1010.0
20260507042104 15 247 1.6 14.5 0.00 0.00 0.00 74 1010.0
20260507042008 15 258 1.6 14.5 0.00 0.00 0.00 74 1010.0
20260507041904 15 265 0.0 14.5 0.00 0.00 0.00 73 1010.0
20260507041805 15 339 0.0 14.5 0.00 0.00 0.00 73 1010.0
20260507041704 15 213 0.0 4.8 0.00 0.00 0.00 73 1009.9
20260507041605 15 335 0.0 4.8 0.00 0.00 0.00 73 1009.9
20260507041506 15 335 0.0 4.8 0.00 0.00 0.00 73 1009.9
20260507041405 15 335 1.6 4.8 0.00 0.00 0.00 73 1009.8
20260507041306 15 335 1.6 4.8 0.00 0.00 0.00 73 1009.9
20260507041204 15 335 1.6 4.8 0.00 0.00 0.00 73 1009.9
20260507041104 15 335 1.6 4.8 0.00 0.00 0.00 73 1009.9
20260507041008 15 335 1.6 4.8 0.00 0.00 0.00 73 1009.9
20260507040905 15 335 1.6 4.8 0.00 0.00 0.00 73 1009.9
20260507040805 15 335 0.0 4.8 0.00 0.00 0.00 73 1010.0
20260507040705 15 335 0.0 4.8 0.00 0.00 0.00 73 1009.9
20260507040507 15 335 1.6 3.2 0.00 0.00 0.00 73 1009.9
20260507040405 15 335 1.6 3.2 0.00 0.00 0.00 73 1009.8
20260507040304 15 335 1.6 4.8 0.00 0.00 0.00 73 1009.8
20260507040104 15 335 1.6 4.8 0.00 0.00 0.00 73 1009.8
20260507040008 15 335 1.6 4.8 0.00 0.00 0.00 73 1009.9
20260507035904 15 335 1.6 4.8 0.00 0.00 0.00 73 1009.9
20260507035804 15 335 1.6 4.8 0.00 0.00 0.00 73 1009.8
20260507035705 15 335 1.6 4.8 0.00 0.00 0.00 73 1009.9
20260507035606 15 335 1.6 4.8 0.00 0.00 0.00 73 1009.9
20260507035506 15 335 1.6 4.8 0.00 0.00 0.00 73 1009.9
20260507035404 15 335 1.6 6.4 0.00 0.00 0.00 73 1009.9
20260507035306 15 335 1.6 6.4 0.00 0.00 0.00 73 1009.9
20260507035205 15 335 1.6 6.4 0.00 0.00 0.00 73 1009.9
20260507035105 15 335 1.6 6.4 0.00 0.00 0.00 74 1009.8
20260507035007 15 335 1.6 6.4 0.00 0.00 0.00 74 1009.8
20260507034905 15 335 1.6 6.4 0.00 0.00 0.00 74 1009.8
20260507034805 15 335 1.6 6.4 0.00 0.00 0.00 74 1009.8
20260507034704 15 335 1.6 6.4 0.00 0.00 0.00 74 1009.9
20260507034605 15 37 1.6 6.4 0.00 0.00 0.00 74 1009.9
20260507034508 15 340 1.6 6.4 0.00 0.00 0.00 74 1009.8
20260507034405 15 340 1.6 6.4 0.00 0.00 0.00 74 1009.9
20260507034206 15 340 1.6 6.4 0.00 0.00 0.00 74 1009.8
20260507034105 15 340 1.6 6.4 0.00 0.00 0.00 74 1009.9
20260507034006 15 64 1.6 6.4 0.00 0.00 0.00 74 1009.9
20260507033905 15 64 1.6 6.4 0.00 0.00 0.00 74 1009.9
20260507033804 15 64 1.6 6.4 0.00 0.00 0.00 74 1009.9
20260507033705 15 351 1.6 6.4 0.00 0.00 0.00 74 1009.9
20260507033604 15 325 1.6 6.4 0.00 0.00 0.00 74 1010.0
20260507033506 15 325 1.6 6.4 0.00 0.00 0.00 74 1010.0
20260507033404 15 325 1.6 6.4 0.00 0.00 0.00 74 1010.1
20260507033306 15 191 1.6 4.8 0.00 0.00 0.00 74 1010.1
20260507033204 15 191 1.6 4.8 0.00 0.00 0.00 74 1010.1
20260507033105 15 191 1.6 4.8 0.00 0.00 0.00 74 1010.1
20260507033007 15 58 1.6 4.8 0.00 0.00 0.00 75 1010.1
20260507032905 15 58 1.6 4.8 0.00 0.00 0.00 74 1010.1
20260507032805 15 58 1.6 4.8 0.00 0.00 0.00 75 1010.2
20260507032705 15 58 1.6 4.8 0.00 0.00 0.00 74 1010.1
20260507032604 15 58 1.6 4.8 0.00 0.00 0.00 75 1010.2
20260507032507 15 22 1.6 4.8 0.00 0.00 0.00 75 1010.2
20260507032405 15 22 1.6 4.8 0.00 0.00 0.00 75 1010.2
20260507032306 15 22 1.6 4.8 0.00 0.00 0.00 75 1010.2
20260507032205 15 279 1.6 4.8 0.00 0.00 0.00 75 1010.1
20260507032010 15 279 0.0 4.8 0.00 0.00 0.00 75 1010.2
20260507031905 15 279 0.0 4.8 0.00 0.00 0.00 75 1010.2
20260507031804 15 279 0.0 4.8 0.00 0.00 0.00 75 1010.1
20260507031705 15 279 0.0 4.8 0.00 0.00 0.00 75 1010.2
20260507031508 15 349 0.0 3.2 0.00 0.00 0.00 75 1010.1
20260507031404 15 349 0.0 3.2 0.00 0.00 0.00 75 1010.2
20260507031304 15 349 0.0 3.2 0.00 0.00 0.00 75 1010.2
20260507031204 15 349 0.0 3.2 0.00 0.00 0.00 75 1010.2
20260507030905 15 349 0.0 1.6 0.00 0.00 0.00 75 1010.3
20260507030804 15 349 0.0 1.6 0.00 0.00 0.00 75 1010.2
20260507030604 15 349 0.0 3.2 0.00 0.00 0.00 75 1010.3
20260507030506 15 349 0.0 3.2 0.00 0.00 0.00 75 1010.3
20260507030405 15 349 0.0 3.2 0.00 0.00 0.00 75 1010.3
20260507030304 15 349 0.0 3.2 0.00 0.00 0.00 75 1010.3
20260507030205 15 349 0.0 3.2 0.00 0.00 0.00 75 1010.3
20260507025906 15 349 0.0 3.2 0.00 0.00 0.00 75 1010.3
20260507025807 15 349 0.0 3.2 0.00 0.00 0.00 75 1010.3
20260507025606 15 13 0.0 3.2 0.00 0.00 0.00 75 1010.3
20260507025507 15 13 0.0 3.2 0.00 0.00 0.00 75 1010.3
20260507025406 15 13 0.0 4.8 0.00 0.00 0.00 75 1010.3
20260507025306 15 352 1.6 4.8 0.00 0.00 0.00 75 1010.3
20260507025206 15 352 1.6 6.4 0.00 0.00 0.00 75 1010.3
20260507025107 15 352 1.6 6.4 0.00 0.00 0.00 75 1010.3
20260507025009 15 352 1.6 6.4 0.00 0.00 0.00 75 1010.2
20260507024906 15 352 1.6 6.4 0.00 0.00 0.00 75 1010.2
20260507024806 15 352 1.6 6.4 0.00 0.00 0.00 75 1010.2
20260507024606 15 227 1.6 6.4 0.00 0.00 0.00 75 1010.3
20260507024506 15 218 1.6 6.4 0.00 0.00 0.00 75 1010.4
20260507024406 15 218 1.6 6.4 0.00 0.00 0.00 75 1010.4
20260507024306 15 268 1.6 6.4 0.00 0.00 0.00 75 1010.4
20260507024205 15 276 1.6 6.4 0.00 0.00 0.00 75 1010.4
20260507024008 15 198 1.6 6.4 0.00 0.00 0.00 75 1010.4
20260507023906 15 198 1.6 6.4 0.00 0.00 0.00 75 1010.4
20260507023805 15 198 1.6 8.0 0.00 0.00 0.00 75 1010.4
20260507023706 15 198 1.6 8.0 0.00 0.00 0.00 75 1010.4
20260507023607 15 198 1.6 8.0 0.00 0.00 0.00 75 1010.4
20260507023306 15 301 1.6 8.0 0.00 0.00 0.00 75 1010.4
20260507023107 15 212 1.6 8.0 0.00 0.00 0.00 74 1010.4
20260507023008 15 242 1.6 9.7 0.00 0.00 0.00 74 1010.4
20260507022905 15 218 1.6 8.0 0.00 0.00 0.00 74 1010.4
20260507022706 15 247 3.2 8.0 0.00 0.00 0.00 74 1010.3
20260507022606 15 260 3.2 8.0 0.00 0.00 0.00 74 1010.3
20260507022507 15 260 3.2 8.0 0.00 0.00 0.00 74 1010.3
20260507022407 15 260 3.2 8.0 0.00 0.00 0.00 74 1010.3
20260507022306 15 260 3.2 9.7 0.00 0.00 0.00 74 1010.3
20260507022206 15 260 3.2 9.7 0.00 0.00 0.00 74 1010.3
20260507022105 15 347 3.2 9.7 0.00 0.00 0.00 74 1010.3
20260507022007 15 289 3.2 9.7 0.00 0.00 0.00 74 1010.3
20260507021907 15 325 1.6 9.7 0.00 0.00 0.00 74 1010.3
20260507021807 15 282 1.6 9.7 0.00 0.00 0.00 74 1010.3
20260507021705 15 272 1.6 9.7 0.00 0.00 0.00 74 1010.3
20260507021605 15 5 1.6 9.7 0.00 0.00 0.00 74 1010.3
20260507021508 15 313 3.2 9.7 0.00 0.00 0.00 74 1010.3
20260507021406 15 297 3.2 12.9 0.00 0.00 0.00 74 1010.3
20260507021306 15 224 1.6 12.9 0.00 0.00 0.00 74 1010.3
20260507021206 15 220 1.6 12.9 0.00 0.00 0.00 74 1010.4
20260507021105 15 285 3.2 12.9 0.00 0.00 0.00 74 1010.4
20260507021008 15 227 3.2 12.9 0.00 0.00 0.00 74 1010.3
20260507020905 15 335 3.2 12.9 0.00 0.00 0.00 74 1010.3
20260507020805 15 335 3.2 12.9 0.00 0.00 0.00 74 1010.3
20260507020707 15 335 3.2 12.9 0.00 0.00 0.00 74 1010.3
20260507020605 15 335 3.2 12.9 0.00 0.00 0.00 74 1010.3
20260507020509 15 319 3.2 12.9 0.00 0.00 0.00 74 1010.4
20260507020306 15 290 3.2 9.7 0.00 0.00 0.00 75 1010.3
20260507020206 15 289 3.2 9.7 0.00 0.00 0.00 75 1010.4
20260507020107 15 360 3.2 9.7 0.00 0.00 0.00 75 1010.4
20260507020009 15 318 3.2 9.7 0.00 0.00 0.00 75 1010.3
20260507015905 15 312 3.2 9.7 0.00 0.00 0.00 75 1010.3
20260507015706 15 245 3.2 8.0 0.00 0.00 0.00 75 1010.3
20260507015605 15 330 3.2 8.0 0.00 0.00 0.00 76 1010.3
20260507015506 15 314 3.2 8.0 0.00 0.00 0.00 76 1010.3
20260507015404 15 330 4.8 9.7 0.00 0.00 0.00 76 1010.3
20260507015306 15 236 4.8 9.7 0.00 0.00 0.00 76 1010.4
20260507015204 15 288 4.8 9.7 0.00 0.00 0.00 76 1010.4
20260507015105 15 339 4.8 12.9 0.00 0.00 0.00 76 1010.4
20260507015009 15 12 4.8 12.9 0.00 0.00 0.00 76 1010.4
20260507014804 15 225 4.8 12.9 0.00 0.00 0.00 76 1010.3
20260507014704 15 220 4.8 12.9 0.00 0.00 0.00 76 1010.3
20260507014604 15 210 4.8 12.9 0.00 0.00 0.00 76 1010.4
20260507014507 15 283 4.8 12.9 0.00 0.00 0.00 77 1010.3
20260507014404 15 247 4.8 12.9 0.00 0.00 0.00 77 1010.3
20260507014305 15 69 4.8 12.9 0.00 0.00 0.00 77 1010.3
20260507014104 15 312 4.8 9.7 0.00 0.00 0.00 77 1010.3
20260507014007 15 279 4.8 9.7 0.00 0.00 0.00 77 1010.2
20260507013906 15 291 3.2 9.7 0.00 0.00 0.00 78 1010.2
20260507013807 15 348 3.2 9.7 0.00 0.00 0.00 78 1010.2
20260507013706 15 202 3.2 9.7 0.00 0.00 0.00 78 1010.2
20260507013605 15 313 3.2 9.7 0.00 0.00 0.00 78 1010.2
20260507013506 15 325 3.2 9.7 0.00 0.00 0.00 78 1010.2
20260507013405 15 335 3.2 9.7 0.00 0.00 0.00 78 1010.3
20260507013305 15 325 1.6 9.7 0.00 0.00 0.00 78 1010.3
20260507013204 15 347 1.6 9.7 0.00 0.00 0.00 78 1010.2
20260507013104 15 306 1.6 9.7 0.00 0.00 0.00 78 1010.2
20260507012906 15 342 1.6 4.8 0.00 0.00 0.00 78 1010.2
20260507012805 15 342 1.6 4.8 0.00 0.00 0.00 78 1010.3
20260507012706 15 342 0.0 4.8 0.00 0.00 0.00 78 1010.3
20260507012506 15 325 0.0 3.2 0.00 0.00 0.00 78 1010.3
20260507012405 15 325 0.0 3.2 0.00 0.00 0.00 78 1010.3
20260507012306 15 325 0.0 1.6 0.00 0.00 0.00 78 1010.3
20260507012206 15 325 0.0 1.6 0.00 0.00 0.00 78 1010.4
20260507012104 15 325 1.6 4.8 0.00 0.00 0.00 78 1010.3
20260507012008 15 325 1.6 4.8 0.00 0.00 0.00 78 1010.4
20260507011904 15 325 1.6 4.8 0.00 0.00 0.00 78 1010.3
20260507011804 15 325 1.6 4.8 0.00 0.00 0.00 78 1010.3
20260507011705 15 325 1.6 6.4 0.00 0.00 0.00 78 1010.3
20260507011607 15 325 1.6 6.4 0.00 0.00 0.00 78 1010.3
20260507011509 15 325 1.6 6.4 0.00 0.00 0.00 77 1010.3
20260507011404 15 325 1.6 6.4 0.00 0.00 0.00 77 1010.3
20260507011305 15 325 1.6 6.4 0.00 0.00 0.00 77 1010.3
20260507011205 15 325 1.6 6.4 0.00 0.00 0.00 77 1010.4
20260507011008 15 263 1.6 6.4 0.00 0.00 0.00 77 1010.4
20260507010905 15 239 1.6 6.4 0.00 0.00 0.00 77 1010.4
20260507010706 15 219 1.6 4.8 0.00 0.00 0.00 77 1010.4
20260507010606 15 278 1.6 4.8 0.00 0.00 0.00 77 1010.4
20260507010506 15 238 1.6 4.8 0.00 0.00 0.00 77 1010.4
20260507010306 15 279 1.6 4.8 0.00 0.00 0.00 77 1010.3
20260507010207 15 279 1.6 4.8 0.00 0.00 0.00 77 1010.3
20260507010105 15 279 1.6 4.8 0.00 0.00 0.00 77 1010.3
20260507010010 15 217 1.6 4.8 0.00 0.00 0.00 77 1010.4
20260507005904 15 217 1.6 4.8 0.00 0.00 0.00 77 1010.4
20260507005706 15 264 1.6 4.8 0.00 0.00 0.00 77 1010.4
20260507005507 15 251 1.6 4.8 0.00 0.00 0.00 77 1010.4
20260507005306 15 359 1.6 4.8 0.00 0.00 0.00 76 1010.3
20260507005206 15 359 1.6 6.4 0.00 0.00 0.00 76 1010.4
20260507005104 15 335 3.2 6.4 0.00 0.00 0.00 76 1010.4
20260507005009 15 352 3.2 6.4 0.00 0.00 0.00 76 1010.3
20260507004907 15 352 3.2 6.4 0.00 0.00 0.00 76 1010.4
20260507004805 15 352 3.2 6.4 0.00 0.00 0.00 76 1010.4
20260507004707 15 352 3.2 6.4 0.00 0.00 0.00 76 1010.4
20260507004607 16 352 3.2 6.4 0.00 0.00 0.00 75 1010.5
20260507004509 16 352 1.6 6.4 0.00 0.00 0.00 75 1010.5
20260507004407 16 352 1.6 6.4 0.00 0.00 0.00 75 1010.5
20260507004105 16 243 1.6 4.8 0.00 0.00 0.00 74 1010.5
20260507003905 16 251 1.6 4.8 0.00 0.00 0.00 74 1010.5
20260507003705 16 342 0.0 4.8 0.00 0.00 0.00 74 1010.5
20260507003606 16 256 0.0 4.8 0.00 0.00 0.00 74 1010.6
20260507003508 16 247 0.0 4.8 0.00 0.00 0.00 74 1010.6
20260507003106 16 330 0.0 0.0 0.00 0.00 0.00 74 1010.6
20260507003008 17 330 0.0 0.0 0.00 0.00 0.00 74 1010.6
20260507002508 17 330 0.0 0.0 0.00 0.00 0.00 74 1010.7
20260507002408 17 330 0.0 0.0 0.00 0.00 0.00 74 1010.7
20260507002308 17 330 0.0 0.0 0.00 0.00 0.00 74 1010.7
20260507002204 17 330 0.0 0.0 0.00 0.00 0.00 74 1010.6
20260507002106 16 330 0.0 0.0 0.00 0.00 0.00 74 1010.6
20260507002008 17 330 0.0 0.0 0.00 0.00 0.00 74 1010.6
20260507001908 17 330 0.0 0.0 0.00 0.00 0.00 74 1010.6
20260507001805 17 330 0.0 0.0 0.00 0.00 0.00 74 1010.6
20260507001706 17 330 0.0 0.0 0.00 0.00 0.00 74 1010.7
20260507001607 17 330 0.0 0.0 0.00 0.00 0.00 74 1010.6
20260507001509 17 330 0.0 1.6 0.00 0.00 0.00 74 1010.6
20260507001307 17 330 0.0 1.6 0.00 0.00 0.00 74 1010.6
20260507001207 17 330 0.0 1.6 0.00 0.00 0.00 74 1010.6
20260507001108 17 330 0.0 1.6 0.00 0.00 0.00 73 1010.6
20260507001008 17 330 0.0 1.6 0.00 0.00 0.00 74 1010.6
20260507000906 17 330 0.0 1.6 0.00 0.00 0.00 74 1010.5
20260507000805 17 330 0.0 1.6 0.00 0.00 0.00 74 1010.6
20260507000707 17 330 0.0 1.6 0.00 0.00 0.00 74 1010.6
20260507000606 17 330 0.0 0.0 0.00 0.00 0.00 74 1010.6
20260507000508 17 128 0.0 0.0 0.00 0.00 0.00 74 1010.5
20260507000405 17 128 0.0 0.0 0.00 0.00 0.00 74 1010.6
20260507000306 17 128 0.0 0.0 0.00 0.00 0.00 74 1010.6
20260507000106 17 128 0.0 0.0 0.00 0.00 0.00 74 1010.6
20260506235902 17 128 0.0 0.0 0.00 0.00 0.00 73 1010.6
20260506235700 17 128 0.0 0.0 0.00 0.00 0.00 73 1010.6
20260506235606 17 128 0.0 0.0 0.00 0.00 0.00 73 1010.6
20260506235406 17 128 0.0 0.0 0.00 0.00 0.00 73 1010.6
20260506235307 17 128 0.0 0.0 0.00 0.00 0.00 73 1010.5
20260506235104 17 128 0.0 0.0 0.00 0.00 0.00 73 1010.6
20260506235008 17 128 0.0 0.0 0.00 0.00 0.00 73 1010.6
20260506234904 17 128 0.0 0.0 0.00 0.00 0.00 73 1010.6
20260506234805 17 128 0.0 0.0 0.00 0.00 0.00 73 1010.6
20260506234706 17 128 0.0 0.0 0.00 0.00 0.00 73 1010.6
20260506234508 17 128 0.0 0.0 0.00 0.00 0.00 73 1010.7
20260506234407 17 128 0.0 0.0 0.00 0.00 0.00 73 1010.7
20260506234304 17 128 0.0 0.0 0.00 0.00 0.00 73 1010.9
20260506234205 17 128 0.0 0.0 0.00 0.00 0.00 73 1010.8
20260506234105 17 128 0.0 0.0 0.00 0.00 0.00 73 1010.8
20260506234006 17 128 0.0 0.0 0.00 0.00 0.00 73 1010.9
20260506233907 17 128 0.0 0.0 0.00 0.00 0.00 73 1010.8
20260506233705 17 128 0.0 0.0 0.00 0.00 0.00 73 1010.9
20260506233510 17 128 0.0 0.0 0.00 0.00 0.00 73 1010.9
20260506233404 17 128 0.0 0.0 0.00 0.00 0.00 73 1010.9
20260506233304 17 128 0.0 0.0 0.00 0.00 0.00 73 1010.9
20260506233204 17 128 0.0 0.0 0.00 0.00 0.00 73 1010.9
20260506233106 17 128 0.0 0.0 0.00 0.00 0.00 73 1010.9
20260506233007 17 128 0.0 0.0 0.00 0.00 0.00 73 1010.9
20260506232904 17 128 0.0 0.0 0.00 0.00 0.00 73 1011.0
20260506232804 17 128 0.0 0.0 0.00 0.00 0.00 73 1010.9
20260506232707 17 128 0.0 0.0 0.00 0.00 0.00 73 1011.0
20260506232606 17 128 0.0 0.0 0.00 0.00 0.00 73 1011.0
20260506232507 17 128 0.0 0.0 0.00 0.00 0.00 73 1011.0
20260506232404 17 128 0.0 0.0 0.00 0.00 0.00 73 1011.0
20260506232204 17 128 0.0 0.0 0.00 0.00 0.00 73 1011.0
20260506232105 17 128 0.0 0.0 0.00 0.00 0.00 73 1011.0
20260506231905 17 128 0.0 0.0 0.00 0.00 0.00 73 1010.9
20260506231807 17 128 0.0 0.0 0.00 0.00 0.00 73 1011.0
20260506231705 17 128 0.0 0.0 0.00 0.00 0.00 72 1010.9
20260506231605 17 128 0.0 0.0 0.00 0.00 0.00 72 1011.0
20260506231506 17 128 0.0 0.0 0.00 0.00 0.00 72 1011.0
20260506231405 17 128 0.0 0.0 0.00 0.00 0.00 72 1011.0
20260506231305 17 128 0.0 0.0 0.00 0.00 0.00 72 1011.0
20260506231205 17 128 0.0 0.0 0.00 0.00 0.00 72 1011.0
20260506231105 17 128 0.0 0.0 0.00 0.00 0.00 72 1011.0
20260506231008 17 128 0.0 0.0 0.00 0.00 0.00 72 1011.0
20260506230906 17 128 0.0 0.0 0.00 0.00 0.00 72 1011.0
20260506230806 17 128 0.0 0.0 0.00 0.00 0.00 72 1011.0
20260506230704 17 128 0.0 0.0 0.00 0.00 0.00 72 1011.1
20260506230508 17 128 0.0 0.0 0.00 0.00 0.00 72 1011.0
20260506230305 17 128 0.0 0.0 0.00 0.00 0.00 72 1011.1
20260506230205 17 128 0.0 0.0 0.00 0.00 0.00 72 1011.1
20260506230105 17 128 0.0 0.0 0.00 0.00 0.00 71 1011.1
20260506230009 17 128 0.0 0.0 0.00 0.00 0.00 71 1011.1
20260506225907 17 128 0.0 0.0 0.00 0.00 0.00 71 1011.1
20260506225807 17 128 0.0 1.6 0.00 0.00 0.00 71 1011.0
20260506225704 17 128 0.0 1.6 0.00 0.00 0.00 71 1011.1
20260506225607 17 128 0.0 1.6 0.00 0.00 0.00 71 1011.1
20260506225506 17 128 0.0 1.6 0.00 0.00 0.00 71 1011.1
20260506225307 17 128 0.0 1.6 0.00 0.00 0.00 71 1011.1
20260506225106 17 128 0.0 4.8 0.00 0.00 0.00 71 1011.1
20260506225009 17 128 0.0 4.8 0.00 0.00 0.00 71 1011.1
20260506224905 17 128 0.0 4.8 0.00 0.00 0.00 71 1011.1
20260506224805 17 128 0.0 4.8 0.00 0.00 0.00 71 1011.2
20260506224705 17 128 0.0 4.8 0.00 0.00 0.00 71 1011.1
20260506224607 17 128 0.0 4.8 0.00 0.00 0.00 71 1011.2
20260506224506 17 128 1.6 4.8 0.00 0.00 0.00 71 1011.1
20260506224404 17 128 1.6 4.8 0.00 0.00 0.00 71 1011.1
20260506224306 17 128 1.6 4.8 0.00 0.00 0.00 71 1011.1
20260506224204 17 128 0.0 4.8 0.00 0.00 0.00 71 1011.1
20260506224105 17 91 1.6 4.8 0.00 0.00 0.00 71 1011.2
20260506224008 17 91 1.6 4.8 0.00 0.00 0.00 71 1011.2
20260506223904 17 91 1.6 4.8 0.00 0.00 0.00 71 1011.1
20260506223805 17 91 1.6 4.8 0.00 0.00 0.00 70 1011.1
20260506223705 17 101 1.6 4.8 0.00 0.00 0.00 70 1011.1
20260506223604 17 101 0.0 4.8 0.00 0.00 0.00 70 1011.1
20260506223506 17 101 0.0 4.8 0.00 0.00 0.00 70 1011.2
20260506223405 17 36 0.0 3.2 0.00 0.00 0.00 71 1011.1
20260506223304 17 318 0.0 3.2 0.00 0.00 0.00 71 1011.2
20260506223204 17 318 0.0 3.2 0.00 0.00 0.00 71 1011.1
20260506223007 17 318 1.6 3.2 0.00 0.00 0.00 71 1011.1
20260506222904 17 178 1.6 4.8 0.00 0.00 0.00 70 1011.1
20260506222805 17 178 1.6 9.7 0.00 0.00 0.00 70 1011.1
20260506222705 17 178 1.6 11.3 0.00 0.00 0.00 70 1011.0
20260506222607 17 91 1.6 11.3 0.00 0.00 0.00 70 1011.1
20260506222509 17 91 3.2 11.3 0.00 0.00 0.00 70 1011.1
20260506222404 17 91 3.2 11.3 0.00 0.00 0.00 70 1011.1
20260506222306 17 91 3.2 11.3 0.00 0.00 0.00 70 1011.1
20260506222206 17 91 4.8 11.3 0.00 0.00 0.00 70 1011.1
20260506221904 17 98 3.2 11.3 0.00 0.00 0.00 70 1011.2
20260506221805 17 68 3.2 11.3 0.00 0.00 0.00 70 1011.2
20260506221705 17 100 3.2 11.3 0.00 0.00 0.00 70 1011.2
20260506221607 17 82 3.2 11.3 0.00 0.00 0.00 70 1011.2
20260506221507 17 96 3.2 11.3 0.00 0.00 0.00 70 1011.2
20260506221405 17 69 3.2 11.3 0.00 0.00 0.00 70 1011.2
20260506221305 17 114 1.6 11.3 0.00 0.00 0.00 70 1011.2
20260506221205 17 158 1.6 11.3 0.00 0.00 0.00 70 1011.2
20260506221106 17 112 1.6 6.4 0.00 0.00 0.00 70 1011.1
20260506221008 17 83 1.6 6.4 0.00 0.00 0.00 70 1011.2
20260506220804 17 83 1.6 6.4 0.00 0.00 0.00 70 1011.2
20260506220705 17 65 1.6 6.4 0.00 0.00 0.00 70 1011.2
20260506220605 17 131 1.6 6.4 0.00 0.00 0.00 70 1011.2
20260506220507 17 121 1.6 6.4 0.00 0.00 0.00 70 1011.1
20260506220306 17 127 3.2 14.5 0.00 0.00 0.00 70 1011.1
20260506220206 17 127 3.2 14.5 0.00 0.00 0.00 70 1011.1
20260506220107 17 127 3.2 14.5 0.00 0.00 0.00 70 1011.1
20260506220008 17 127 3.2 14.5 0.00 0.00 0.00 70 1011.1
20260506215906 17 93 3.2 14.5 0.00 0.00 0.00 70 1011.1
20260506215806 17 39 3.2 14.5 0.00 0.00 0.00 70 1011.1
20260506215706 17 81 3.2 14.5 0.00 0.00 0.00 70 1011.1
20260506215606 17 77 3.2 14.5 0.00 0.00 0.00 70 1011.2
20260506215508 17 98 3.2 14.5 0.00 0.00 0.00 70 1011.1
20260506215408 17 110 3.2 14.5 0.00 0.00 0.00 70 1011.1
20260506215307 17 107 3.2 12.9 0.00 0.00 0.00 70 1011.2
20260506215206 17 75 3.2 11.3 0.00 0.00 0.00 70 1011.2
20260506215008 17 59 3.2 11.3 0.00 0.00 0.00 70 1011.2
20260506214906 17 59 3.2 11.3 0.00 0.00 0.00 70 1011.1
20260506214806 17 66 1.6 11.3 0.00 0.00 0.00 70 1011.2
20260506214707 17 129 1.6 8.0 0.00 0.00 0.00 70 1011.2
20260506214606 17 77 1.6 6.4 0.00 0.00 0.00 70 1011.2
20260506214507 17 126 1.6 6.4 0.00 0.00 0.00 70 1011.2
20260506214406 17 126 1.6 6.4 0.00 0.00 0.00 70 1011.3
20260506214307 17 42 3.2 11.3 0.00 0.00 0.00 70 1011.2
20260506214206 17 42 1.6 11.3 0.00 0.00 0.00 70 1011.2
20260506214105 17 325 3.2 11.3 0.00 0.00 0.00 70 1011.2
20260506214008 17 325 3.2 11.3 0.00 0.00 0.00 70 1011.2
20260506213906 17 325 3.2 11.3 0.00 0.00 0.00 70 1011.2
20260506213806 17 104 3.2 11.3 0.00 0.00 0.00 70 1011.1
20260506213707 17 104 4.8 11.3 0.00 0.00 0.00 70 1011.2
20260506213607 17 104 4.8 11.3 0.00 0.00 0.00 70 1011.2
20260506213308 17 133 3.2 12.9 0.00 0.00 0.00 70 1011.1
20260506213205 17 3 4.8 12.9 0.00 0.00 0.00 70 1011.2
20260506213009 17 109 3.2 12.9 0.00 0.00 0.00 70 1011.1
20260506212907 17 108 3.2 12.9 0.00 0.00 0.00 70 1011.1
20260506212806 17 12 3.2 12.9 0.00 0.00 0.00 70 1011.2
20260506212706 17 89 3.2 12.9 0.00 0.00 0.00 70 1011.2
20260506212606 17 5 3.2 12.9 0.00 0.00 0.00 70 1011.2
20260506212507 17 68 3.2 12.9 0.00 0.00 0.00 70 1011.2
20260506212307 17 339 3.2 12.9 0.00 0.00 0.00 70 1011.1
20260506212205 17 127 3.2 14.5 0.00 0.00 0.00 70 1011.1
20260506212106 17 97 3.2 14.5 0.00 0.00 0.00 70 1011.0
20260506212008 17 216 4.8 14.5 0.00 0.00 0.00 70 1011.1
20260506211908 17 96 4.8 14.5 0.00 0.00 0.00 70 1011.1
20260506211806 17 87 3.2 14.5 0.00 0.00 0.00 70 1011.0
20260506211706 17 77 3.2 14.5 0.00 0.00 0.00 70 1011.0
20260506211606 17 116 4.8 14.5 0.00 0.00 0.00 70 1011.0
20260506211406 17 100 4.8 19.3 0.00 0.00 0.00 70 1011.0
20260506211308 17 104 4.8 19.3 0.00 0.00 0.00 70 1011.0
20260506211206 17 202 4.8 19.3 0.00 0.00 0.00 70 1011.0
20260506211008 17 91 4.8 19.3 0.00 0.00 0.00 70 1011.0
20260506210907 17 109 4.8 19.3 0.00 0.00 0.00 70 1010.9
20260506210806 17 109 6.4 19.3 0.00 0.00 0.00 70 1010.9
20260506210706 17 109 6.4 19.3 0.00 0.00 0.00 70 1010.9
20260506210606 17 62 8.0 19.3 0.00 0.00 0.00 70 1010.9
20260506210507 17 70 8.0 17.7 0.00 0.00 0.00 70 1010.8
20260506210405 17 345 8.0 19.3 0.00 0.00 0.00 70 1010.8
20260506210306 17 64 6.4 19.3 0.00 0.00 0.00 70 1010.8
20260506210206 17 52 6.4 19.3 0.00 0.00 0.00 70 1010.8
20260506210106 17 61 6.4 19.3 0.00 0.00 0.00 70 1010.7
20260506210011 17 339 6.4 19.3 0.00 0.00 0.00 70 1010.7
20260506205908 17 170 6.4 19.3 0.00 0.00 0.00 70 1010.7
20260506205808 17 64 6.4 19.3 0.00 0.00 0.00 70 1010.7
20260506205706 17 81 4.8 19.3 0.00 0.00 0.00 70 1010.7
20260506205607 17 70 4.8 19.3 0.00 0.00 0.00 70 1010.7
20260506205509 17 64 4.8 16.1 0.00 0.00 0.00 69 1010.7
20260506205406 17 97 3.2 16.1 0.00 0.00 0.00 69 1010.8
20260506205307 17 93 3.2 16.1 0.00 0.00 0.00 70 1010.7
20260506205207 17 82 3.2 16.1 0.00 0.00 0.00 70 1010.7
20260506205107 17 300 3.2 16.1 0.00 0.00 0.00 70 1010.6
20260506205009 17 335 4.8 16.1 0.00 0.00 0.00 70 1010.6
20260506204907 17 111 4.8 16.1 0.00 0.00 0.00 70 1010.6
20260506204808 17 10 3.2 16.1 0.00 0.00 0.00 70 1010.6
20260506204706 17 116 3.2 16.1 0.00 0.00 0.00 70 1010.6
20260506204509 17 68 4.8 16.1 0.00 0.00 0.00 70 1010.6
20260506204407 17 40 4.8 17.7 0.00 0.00 0.00 70 1010.5
20260506204208 17 51 3.2 17.7 0.00 0.00 0.00 70 1010.5
20260506204108 17 306 4.8 17.7 0.00 0.00 0.00 70 1010.5
20260506204010 17 31 4.8 17.7 0.00 0.00 0.00 70 1010.4
20260506203908 17 22 4.8 17.7 0.00 0.00 0.00 71 1010.4
20260506203808 17 102 4.8 17.7 0.00 0.00 0.00 71 1010.4
20260506203708 17 325 6.4 17.7 0.00 0.00 0.00 71 1010.3
20260506203607 17 44 4.8 17.7 0.00 0.00 0.00 71 1010.5
20260506203509 17 27 4.8 14.5 0.00 0.00 0.00 71 1010.3
20260506203407 17 27 4.8 14.5 0.00 0.00 0.00 71 1010.4
20260506203309 17 319 6.4 14.5 0.00 0.00 0.00 71 1010.4
20260506203208 17 96 6.4 14.5 0.00 0.00 0.00 71 1010.4
20260506203108 17 330 6.4 14.5 0.00 0.00 0.00 71 1010.3
20260506203012 17 26 6.4 17.7 0.00 0.00 0.00 71 1010.4
20260506202907 17 81 6.4 17.7 0.00 0.00 0.00 71 1010.4
20260506202608 17 304 6.4 17.7 0.00 0.00 0.00 71 1010.4
20260506202509 17 75 6.4 17.7 0.00 0.00 0.00 70 1010.4
20260506202207 17 39 8.0 24.1 0.00 0.00 0.00 70 1010.3
20260506202107 17 12 9.7 24.1 0.00 0.00 0.00 71 1010.3
20260506202010 17 19 9.7 24.1 0.00 0.00 0.00 71 1010.3
20260506201908 17 330 8.0 24.1 0.00 0.00 0.00 71 1010.3
20260506201809 17 77 8.0 24.1 0.00 0.00 0.00 71 1010.3
20260506201708 17 46 9.7 24.1 0.00 0.00 0.00 71 1010.3
20260506201510 17 64 9.7 24.1 0.00 0.00 0.00 71 1010.3
20260506201407 17 64 8.0 24.1 0.00 0.00 0.00 70 1010.2
20260506201307 17 64 6.4 22.5 0.00 0.00 0.00 70 1010.3
20260506201209 17 66 6.4 22.5 0.00 0.00 0.00 71 1010.2
20260506201108 17 38 4.8 17.7 0.00 0.00 0.00 71 1010.2
20260506201009 17 41 6.4 17.7 0.00 0.00 0.00 71 1010.1
20260506200907 17 33 6.4 17.7 0.00 0.00 0.00 71 1010.1
20260506200706 17 50 6.4 17.7 0.00 0.00 0.00 70 1010.2
20260506200608 17 85 6.4 17.7 0.00 0.00 0.00 70 1010.2
20260506200306 17 41 6.4 20.9 0.00 0.00 0.00 70 1010.1
20260506200207 17 46 6.4 20.9 0.00 0.00 0.00 70 1010.1
20260506200107 17 104 6.4 20.9 0.00 0.00 0.00 70 1010.1
20260506200010 17 124 6.4 20.9 0.00 0.00 0.00 70 1010.1
20260506195908 17 58 4.8 20.9 0.00 0.00 0.00 70 1010.0
20260506195806 17 164 3.2 20.9 0.00 0.00 0.00 70 1010.1
20260506195706 17 109 3.2 20.9 0.00 0.00 0.00 70 1010.0
20260506195406 17 68 3.2 9.7 0.00 0.00 0.00 70 1010.1
20260506195308 17 91 3.2 9.7 0.00 0.00 0.00 70 1010.1
20260506195107 17 335 3.2 14.5 0.00 0.00 0.00 70 1010.1
20260506194808 17 346 3.2 14.5 0.00 0.00 0.00 70 1010.0
20260506194708 17 347 3.2 14.5 0.00 0.00 0.00 70 1010.1
20260506194307 17 78 4.8 14.5 0.00 0.00 0.00 71 1009.9
20260506194207 17 98 4.8 14.5 0.00 0.00 0.00 71 1009.9
20260506194108 17 39 4.8 14.5 0.00 0.00 0.00 71 1009.9
20260506194010 17 71 6.4 14.5 0.00 0.00 0.00 71 1009.9
20260506193908 17 345 6.4 16.1 0.00 0.00 0.00 72 1009.9
20260506193809 17 112 6.4 16.1 0.00 0.00 0.00 72 1009.9
20260506193708 17 258 6.4 16.1 0.00 0.00 0.00 72 1009.8
20260506193609 17 251 6.4 16.1 0.00 0.00 0.00 71 1009.8
20260506193510 17 43 6.4 16.1 0.00 0.00 0.00 71 1009.7
20260506193408 17 129 4.8 16.1 0.00 0.00 0.00 71 1009.7
20260506193308 17 114 4.8 16.1 0.00 0.00 0.00 71 1009.7
20260506193208 17 114 4.8 16.1 0.00 0.00 0.00 71 1009.7
20260506193108 17 72 4.8 16.1 0.00 0.00 0.00 71 1009.7
20260506193011 17 36 4.8 16.1 0.00 0.00 0.00 71 1009.8
20260506192908 17 112 4.8 16.1 0.00 0.00 0.00 71 1009.8
20260506192808 17 154 4.8 16.1 0.00 0.00 0.00 71 1009.7
20260506192709 17 118 6.4 16.1 0.00 0.00 0.00 71 1009.7
20260506192608 17 353 6.4 16.1 0.00 0.00 0.00 71 1009.7
20260506192509 17 100 6.4 17.7 0.00 0.00 0.00 72 1009.7
20260506192408 17 102 6.4 17.7 0.00 0.00 0.00 72 1009.8
20260506192108 17 110 4.8 17.7 0.00 0.00 0.00 72 1009.7
20260506191810 17 40 4.8 17.7 0.00 0.00 0.00 72 1009.7
20260506191708 17 77 4.8 17.7 0.00 0.00 0.00 72 1009.7
20260506191607 17 104 4.8 14.5 0.00 0.00 0.00 72 1009.7
20260506191509 17 25 4.8 14.5 0.00 0.00 0.00 72 1009.6
20260506191309 17 30 4.8 14.5 0.00 0.00 0.00 72 1009.6
20260506191207 17 39 4.8 14.5 0.00 0.00 0.00 72 1009.7
20260506191108 17 153 4.8 14.5 0.00 0.00 0.00 72 1009.7
20260506191010 17 105 4.8 14.5 0.00 0.00 0.00 72 1009.6
20260506190908 17 125 6.4 14.5 0.00 0.00 0.00 72 1009.5
20260506190808 17 51 4.8 14.5 0.00 0.00 0.00 71 1009.5
20260506190709 17 139 4.8 14.5 0.00 0.00 0.00 71 1009.5
20260506190608 17 98 4.8 12.9 0.00 0.00 0.00 71 1009.5
20260506190509 17 317 4.8 14.5 0.00 0.00 0.00 71 1009.5
20260506190408 17 93 6.4 14.5 0.00 0.00 0.00 71 1009.5
20260506190308 17 129 6.4 14.5 0.00 0.00 0.00 71 1009.5
20260506190207 17 239 6.4 16.1 0.00 0.00 0.00 71 1009.5
20260506190107 17 144 6.4 16.1 0.00 0.00 0.00 71 1009.5
20260506185906 17 81 6.4 19.3 0.00 0.00 0.00 71 1009.4
20260506185807 17 164 6.4 19.3 0.00 0.00 0.00 71 1009.5
20260506185707 17 87 6.4 19.3 0.00 0.00 0.00 71 1009.5
20260506185608 17 127 6.4 19.3 0.00 0.00 0.00 72 1009.5
20260506185507 17 71 6.4 19.3 0.00 0.00 0.00 72 1009.5
20260506185405 17 102 8.0 19.3 0.00 0.00 0.00 72 1009.5
20260506185307 17 234 6.4 19.3 0.00 0.00 0.00 72 1009.5
20260506185206 17 81 8.0 19.3 0.00 0.00 0.00 72 1009.4
20260506185008 17 105 8.0 16.1 0.00 0.00 0.00 72 1009.4
20260506184906 17 58 6.4 16.1 0.00 0.00 0.00 72 1009.5
20260506184806 17 6 8.0 16.1 0.00 0.00 0.00 72 1009.4
20260506184706 17 330 8.0 16.1 0.00 0.00 0.00 72 1009.4
20260506184607 17 171 8.0 16.1 0.00 0.00 0.00 72 1009.4
20260506184507 17 103 8.0 16.1 0.00 0.00 0.00 73 1009.3
20260506184406 17 79 6.4 16.1 0.00 0.00 0.00 72 1009.4
20260506184306 17 123 6.4 16.1 0.00 0.00 0.00 73 1009.4
20260506184207 17 88 6.4 16.1 0.00 0.00 0.00 73 1009.4
20260506184106 17 91 6.4 16.1 0.00 0.00 0.00 73 1009.3
20260506184008 17 110 6.4 16.1 0.00 0.00 0.00 73 1009.4
20260506183906 17 81 4.8 16.1 0.00 0.00 0.00 73 1009.4
20260506183806 17 101 6.4 16.1 0.00 0.00 0.00 73 1009.4
20260506183706 17 85 6.4 16.1 0.00 0.00 0.00 72 1009.4
20260506183606 17 74 4.8 16.1 0.00 0.00 0.00 72 1009.5
20260506183509 17 96 4.8 14.5 0.00 0.00 0.00 72 1009.4
20260506183406 17 130 4.8 14.5 0.00 0.00 0.00 72 1009.3
20260506183307 17 316 4.8 12.9 0.00 0.00 0.00 72 1009.3
20260506183206 17 107 4.8 14.5 0.00 0.00 0.00 72 1009.3
20260506183009 17 64 6.4 14.5 0.00 0.00 0.00 72 1009.4
20260506182906 17 112 6.4 14.5 0.00 0.00 0.00 72 1009.4
20260506182805 17 106 6.4 17.7 0.00 0.00 0.00 72 1009.3
20260506182705 17 86 6.4 20.9 0.00 0.00 0.00 72 1009.4
20260506182605 17 160 6.4 20.9 0.00 0.00 0.00 72 1009.3
20260506182406 17 114 6.4 20.9 0.00 0.00 0.00 72 1009.3
20260506182307 17 96 6.4 20.9 0.00 0.00 0.00 72 1009.4
20260506182206 17 79 6.4 20.9 0.00 0.00 0.00 72 1009.3
20260506182106 17 56 6.4 20.9 0.00 0.00 0.00 72 1009.3
20260506182008 17 114 6.4 20.9 0.00 0.00 0.00 72 1009.3
20260506181907 17 145 6.4 20.9 0.00 0.00 0.00 72 1009.3
20260506181806 17 95 6.4 20.9 0.00 0.00 0.00 71 1009.2
20260506181706 17 121 4.8 19.3 0.00 0.00 0.00 72 1009.3
20260506181609 17 105 4.8 19.3 0.00 0.00 0.00 72 1009.3
20260506181507 17 150 4.8 19.3 0.00 0.00 0.00 72 1009.3
20260506181306 17 124 4.8 19.3 0.00 0.00 0.00 71 1009.3
20260506181206 17 64 4.8 14.5 0.00 0.00 0.00 71 1009.3
20260506181106 17 81 4.8 14.5 0.00 0.00 0.00 71 1009.4
20260506181010 17 86 4.8 14.5 0.00 0.00 0.00 71 1009.3
20260506180707 17 256 6.4 14.5 0.00 0.00 0.00 71 1009.4
20260506180606 17 102 6.4 17.7 0.00 0.00 0.00 71 1009.4
20260506180306 17 137 6.4 17.7 0.00 0.00 0.00 71 1009.4
20260506180106 17 45 6.4 17.7 0.00 0.00 0.00 71 1009.4
20260506180009 17 49 4.8 17.7 0.00 0.00 0.00 70 1009.3
20260506175907 17 110 4.8 17.7 0.00 0.00 0.00 70 1009.3
20260506175605 17 34 3.2 14.5 0.00 0.00 0.00 71 1009.4
20260506175508 17 104 3.2 12.9 0.00 0.00 0.00 71 1009.4
20260506175406 17 4 3.2 9.7 0.00 0.00 0.00 71 1009.3
20260506175306 17 11 4.8 16.1 0.00 0.00 0.00 71 1009.4
20260506175107 17 98 4.8 16.1 0.00 0.00 0.00 71 1009.5
20260506175012 17 50 4.8 16.1 0.00 0.00 0.00 71 1009.4
20260506174907 17 100 4.8 16.1 0.00 0.00 0.00 71 1009.4
20260506174805 17 259 4.8 16.1 0.00 0.00 0.00 71 1009.4
20260506174706 17 335 4.8 16.1 0.00 0.00 0.00 71 1009.4
20260506174606 17 353 4.8 16.1 0.00 0.00 0.00 71 1009.4
20260506174507 17 116 4.8 16.1 0.00 0.00 0.00 71 1009.4
20260506174407 17 340 4.8 16.1 0.00 0.00 0.00 71 1009.4
20260506174306 17 345 4.8 16.1 0.00 0.00 0.00 71 1009.4
20260506174106 17 102 4.8 16.1 0.00 0.00 0.00 71 1009.5
20260506174007 17 154 4.8 16.1 0.00 0.00 0.00 71 1009.6
20260506173906 17 100 4.8 16.1 0.00 0.00 0.00 71 1009.5
20260506173806 17 304 6.4 16.1 0.00 0.00 0.00 71 1009.6
20260506173706 17 16 6.4 16.1 0.00 0.00 0.00 71 1009.6
20260506173507 17 100 6.4 16.1 0.00 0.00 0.00 71 1009.6
20260506173407 17 62 6.4 16.1 0.00 0.00 0.00 71 1009.6
20260506173306 17 347 6.4 22.5 0.00 0.00 0.00 71 1009.6
20260506173206 17 81 6.4 22.5 0.00 0.00 0.00 71 1009.6
20260506173106 17 330 6.4 22.5 0.00 0.00 0.00 71 1009.6
20260506173008 17 75 8.0 22.5 0.00 0.00 0.00 71 1009.6
20260506172906 17 23 6.4 22.5 0.00 0.00 0.00 71 1009.6
20260506172806 17 140 6.4 22.5 0.00 0.00 0.00 71 1009.5
20260506172706 17 152 6.4 22.5 0.00 0.00 0.00 71 1009.5
20260506172606 17 45 6.4 22.5 0.00 0.00 0.00 71 1009.5
20260506172507 17 83 6.4 22.5 0.00 0.00 0.00 71 1009.5
20260506172207 17 55 8.0 22.5 0.00 0.00 0.00 71 1009.5
20260506171906 17 193 9.7 22.5 0.00 0.00 0.00 72 1009.5
20260506171807 17 226 9.7 22.5 0.00 0.00 0.00 72 1009.5
20260506171707 17 110 11.3 22.5 0.00 0.00 0.00 72 1009.5
20260506171606 17 13 11.3 22.5 0.00 0.00 0.00 72 1009.5
20260506171509 17 67 11.3 22.5 0.00 0.00 0.00 72 1009.5
20260506171407 17 48 11.3 22.5 0.00 0.00 0.00 72 1009.5
20260506171306 17 75 11.3 20.9 0.00 0.00 0.00 72 1009.5
20260506171206 17 39 9.7 20.9 0.00 0.00 0.00 71 1009.5
20260506171106 17 79 9.7 22.5 0.00 0.00 0.00 71 1009.5
20260506171008 17 93 9.7 22.5 0.00 0.00 0.00 71 1009.5
20260506170906 17 41 9.7 22.5 0.00 0.00 0.00 70 1009.4
20260506170806 18 72 8.0 22.5 0.00 0.00 0.00 71 1009.4
20260506170606 18 52 8.0 22.5 0.00 0.00 0.00 71 1009.5
20260506170507 18 60 8.0 22.5 0.00 0.00 0.00 71 1009.4
20260506170405 18 23 6.4 22.5 0.00 0.00 0.00 71 1009.4
20260506170307 18 21 6.4 22.5 0.00 0.00 0.00 70 1009.4
20260506170109 18 32 4.8 22.5 0.00 0.00 0.00 71 1009.5
20260506170009 18 75 4.8 20.9 0.00 0.00 0.00 71 1009.5
20260506165906 18 184 4.8 20.9 0.00 0.00 0.00 71 1009.5
20260506165806 18 110 4.8 20.9 0.00 0.00 0.00 70 1009.4
20260506165706 18 103 4.8 20.9 0.00 0.00 0.00 70 1009.5
20260506165606 18 360 3.2 20.9 0.00 0.00 0.00 69 1009.5
20260506165106 18 360 3.2 9.7 0.00 0.00 0.00 70 1009.4
20260506164806 18 190 4.8 19.3 0.00 0.00 0.00 70 1009.4
20260506164708 18 156 4.8 19.3 0.00 0.00 0.00 70 1009.4
20260506164606 18 229 4.8 19.3 0.00 0.00 0.00 70 1009.4
20260506164508 18 345 4.8 19.3 0.00 0.00 0.00 70 1009.4
20260506164406 18 87 4.8 19.3 0.00 0.00 0.00 70 1009.4
20260506164306 18 65 4.8 19.3 0.00 0.00 0.00 71 1009.4
20260506164206 18 16 4.8 19.3 0.00 0.00 0.00 70 1009.5
20260506164105 18 79 4.8 19.3 0.00 0.00 0.00 70 1009.4
20260506164008 18 97 4.8 19.3 0.00 0.00 0.00 71 1009.4
20260506163906 18 125 4.8 16.1 0.00 0.00 0.00 71 1009.5
20260506163806 18 181 4.8 16.1 0.00 0.00 0.00 71 1009.5
20260506163707 18 207 4.8 16.1 0.00 0.00 0.00 71 1009.5
20260506163607 18 150 4.8 16.1 0.00 0.00 0.00 70 1009.5
20260506163508 18 57 4.8 16.1 0.00 0.00 0.00 70 1009.4
20260506163407 18 71 4.8 16.1 0.00 0.00 0.00 70 1009.5
20260506163307 18 176 4.8 16.1 0.00 0.00 0.00 70 1009.5
20260506163207 18 137 4.8 16.1 0.00 0.00 0.00 70 1009.5
20260506163106 18 143 4.8 16.1 0.00 0.00 0.00 70 1009.4
20260506163009 18 159 6.4 17.7 0.00 0.00 0.00 70 1009.4
20260506162906 18 96 6.4 19.3 0.00 0.00 0.00 70 1009.4
20260506162806 18 108 8.0 22.5 0.00 0.00 0.00 69 1009.4
20260506162705 18 345 8.0 22.5 0.00 0.00 0.00 69 1009.4
20260506162608 18 143 8.0 22.5 0.00 0.00 0.00 69 1009.4
20260506162508 18 74 8.0 22.5 0.00 0.00 0.00 69 1009.4
20260506162406 18 11 8.0 22.5 0.00 0.00 0.00 69 1009.3
20260506162307 18 325 8.0 22.5 0.00 0.00 0.00 69 1009.3
20260506162207 18 46 6.4 22.5 0.00 0.00 0.00 69 1009.3
20260506162106 18 123 6.4 22.5 0.00 0.00 0.00 69 1009.4
20260506162008 18 79 4.8 22.5 0.00 0.00 0.00 69 1009.4
20260506161907 18 81 4.8 19.3 0.00 0.00 0.00 69 1009.4
20260506161806 18 39 4.8 19.3 0.00 0.00 0.00 69 1009.4
20260506161705 18 79 3.2 14.5 0.00 0.00 0.00 69 1009.4
20260506161511 18 95 4.8 12.9 0.00 0.00 0.00 69 1009.3
20260506161405 18 49 4.8 17.7 0.00 0.00 0.00 69 1009.3
20260506161311 18 61 3.2 17.7 0.00 0.00 0.00 68 1009.3
20260506161219 18 83 3.2 17.7 0.00 0.00 0.00 68 1009.4
20260506161113 18 291 3.2 17.7 0.00 0.00 0.00 68 1009.4
20260506161009 18 67 4.8 17.7 0.00 0.00 0.00 68 1009.4
20260506160913 18 269 4.8 17.7 0.00 0.00 0.00 68 1009.4
20260506160820 18 33 4.8 17.7 0.00 0.00 0.00 68 1009.3
20260506160720 18 276 4.8 17.7 0.00 0.00 0.00 69 1009.5
20260506160507 18 108 4.8 17.7 0.00 0.00 0.00 69 1009.5
20260506160405 18 151 4.8 16.1 0.00 0.00 0.00 69 1009.5
20260506160206 18 85 4.8 19.3 0.00 0.00 0.00 69 1009.5
20260506160105 18 45 4.8 19.3 0.00 0.00 0.00 70 1009.4
20260506160010 18 8 4.8 19.3 0.00 0.00 0.00 69 1009.5
20260506155906 18 335 4.8 19.3 0.00 0.00 0.00 69 1009.5
20260506155805 18 41 6.4 19.3 0.00 0.00 0.00 69 1009.4
20260506155707 18 103 6.4 19.3 0.00 0.00 0.00 69 1009.5
20260506155606 18 125 6.4 19.3 0.00 0.00 0.00 69 1009.5
20260506155507 18 53 4.8 19.3 0.00 0.00 0.00 69 1009.4
20260506155406 18 113 4.8 17.7 0.00 0.00 0.00 70 1009.4
20260506155306 18 77 4.8 14.5 0.00 0.00 0.00 70 1009.4
20260506155205 18 193 4.8 14.5 0.00 0.00 0.00 70 1009.4
20260506155106 18 264 6.4 14.5 0.00 0.00 0.00 70 1009.4
20260506154906 18 234 6.4 17.7 0.00 0.00 0.00 69 1009.4
20260506154806 18 118 6.4 17.7 0.00 0.00 0.00 69 1009.4
20260506154707 18 259 8.0 17.7 0.00 0.00 0.00 69 1009.4
20260506154508 18 76 8.0 19.3 0.00 0.00 0.00 70 1009.5
20260506154405 18 90 8.0 22.5 0.00 0.00 0.00 70 1009.4
20260506154306 18 48 9.7 22.5 0.00 0.00 0.00 70 1009.5
20260506154206 18 299 9.7 22.5 0.00 0.00 0.00 69 1009.4
20260506154106 18 70 8.0 22.5 0.00 0.00 0.00 70 1009.5
20260506154008 18 120 8.0 22.5 0.00 0.00 0.00 70 1009.4
20260506153805 18 138 8.0 22.5 0.00 0.00 0.00 69 1009.5
20260506153706 18 125 6.4 22.5 0.00 0.00 0.00 69 1009.5
20260506153615 18 116 4.8 22.5 0.00 0.00 0.00 70 1009.5
20260506153508 18 75 4.8 19.3 0.00 0.00 0.00 70 1009.5
20260506153406 18 90 6.4 19.3 0.00 0.00 0.00 70 1009.5
20260506153306 18 118 6.4 19.3 0.00 0.00 0.00 69 1009.4
20260506152906 18 295 8.0 24.1 0.00 0.00 0.00 70 1009.4
20260506152705 18 261 9.7 24.1 0.00 0.00 0.00 70 1009.4
20260506152607 18 182 9.7 24.1 0.00 0.00 0.00 70 1009.4
20260506152508 18 248 9.7 24.1 0.00 0.00 0.00 69 1009.4
20260506152406 18 96 9.7 24.1 0.00 0.00 0.00 69 1009.4
20260506152306 18 113 8.0 24.1 0.00 0.00 0.00 69 1009.4
20260506152206 18 104 8.0 24.1 0.00 0.00 0.00 69 1009.3
20260506152106 18 146 8.0 24.1 0.00 0.00 0.00 69 1009.4
20260506151807 18 146 9.7 20.9 0.00 0.00 0.00 69 1009.3
20260506151707 18 55 8.0 20.9 0.00 0.00 0.00 69 1009.3
20260506151606 18 119 8.0 20.9 0.00 0.00 0.00 69 1009.3
20260506151306 18 77 8.0 20.9 0.00 0.00 0.00 70 1009.4
20260506151106 18 95 8.0 20.9 0.00 0.00 0.00 69 1009.4
20260506151009 18 107 8.0 20.9 0.00 0.00 0.00 69 1009.4
20260506150905 18 84 8.0 20.9 0.00 0.00 0.00 69 1009.5
20260506150805 18 65 8.0 20.9 0.00 0.00 0.00 69 1009.5
20260506150706 18 167 9.7 20.9 0.00 0.00 0.00 70 1009.4
20260506150607 18 88 9.7 20.9 0.00 0.00 0.00 70 1009.5
20260506150508 18 49 9.7 20.9 0.00 0.00 0.00 71 1009.4
20260506150406 18 6 11.3 20.9 0.00 0.00 0.00 71 1009.4
20260506150307 18 101 11.3 20.9 0.00 0.00 0.00 72 1009.4
20260506150205 18 127 11.3 20.9 0.00 0.00 0.00 72 1009.4
20260506150108 18 111 11.3 20.9 0.00 0.00 0.00 72 1009.4
20260506150008 18 89 11.3 22.5 0.00 0.00 0.00 72 1009.4
20260506145907 18 109 11.3 22.5 0.00 0.00 0.00 71 1009.4
20260506145806 18 111 9.7 22.5 0.00 0.00 0.00 71 1009.4
20260506145705 18 29 9.7 22.5 0.00 0.00 0.00 71 1009.4
20260506145607 18 141 9.7 22.5 0.00 0.00 0.00 70 1009.4
20260506145507 18 27 11.3 22.5 0.00 0.00 0.00 70 1009.4
20260506145408 18 139 11.3 24.1 0.00 0.00 0.00 70 1009.4
20260506145319 18 109 11.3 22.5 0.00 0.00 0.00 70 1009.4
20260506145205 18 145 11.3 22.5 0.00 0.00 0.00 70 1009.4
20260506145119 18 95 11.3 24.1 0.00 0.00 0.00 69 1009.4
20260506145030 18 135 11.3 25.7 0.00 0.00 0.00 69 1009.4
20260506144917 18 126 11.3 25.7 0.00 0.00 0.00 70 1009.5
20260506144707 17 179 12.9 25.7 0.00 0.00 0.00 70 1009.5
20260506144607 17 212 12.9 25.7 0.00 0.00 0.00 70 1009.5
20260506144407 17 90 12.9 25.7 0.00 0.00 0.00 70 1009.5
20260506144307 17 168 12.9 25.7 0.00 0.00 0.00 70 1009.6
20260506144007 18 167 11.3 24.1 0.00 0.00 0.00 70 1009.6
20260506143907 18 60 11.3 24.1 0.00 0.00 0.00 70 1009.6
20260506143806 18 100 11.3 24.1 0.00 0.00 0.00 70 1009.6
20260506143706 18 158 11.3 24.1 0.00 0.00 0.00 71 1009.6
20260506143606 18 91 11.3 24.1 0.00 0.00 0.00 72 1009.6
20260506143508 18 154 12.9 25.7 0.00 0.00 0.00 72 1009.6
20260506143307 18 140 11.3 25.7 0.00 0.00 0.00 71 1009.7
20260506143207 18 99 12.9 25.7 0.00 0.00 0.00 72 1009.7
20260506143105 18 54 12.9 25.7 0.00 0.00 0.00 71 1009.7
20260506143009 18 91 12.9 25.7 0.00 0.00 0.00 71 1009.7
20260506142905 18 142 12.9 25.7 0.00 0.00 0.00 71 1009.7
20260506142805 18 145 12.9 25.7 0.00 0.00 0.00 71 1009.7
20260506142607 18 77 12.9 25.7 0.00 0.00 0.00 71 1009.8
20260506142508 18 133 12.9 25.7 0.00 0.00 0.00 71 1009.9
20260506142406 18 76 11.3 25.7 0.00 0.00 0.00 70 1009.8
20260506142306 18 85 11.3 25.7 0.00 0.00 0.00 70 1009.9
20260506142206 18 139 11.3 25.7 0.00 0.00 0.00 70 1009.8
20260506142007 18 105 11.3 25.7 0.00 0.00 0.00 70 1009.9
20260506141907 18 116 11.3 25.7 0.00 0.00 0.00 70 1009.9
20260506141706 18 113 9.7 25.7 0.00 0.00 0.00 70 1010.0
20260506141507 18 335 9.7 25.7 0.00 0.00 0.00 70 1010.0
20260506141405 18 68 9.7 25.7 0.00 0.00 0.00 69 1010.0
20260506141306 18 98 9.7 25.7 0.00 0.00 0.00 69 1009.9
20260506141009 18 102 8.0 22.5 0.00 0.00 0.00 70 1009.9
20260506140908 18 96 9.7 22.5 0.00 0.00 0.00 70 1009.9
20260506140806 18 82 9.7 22.5 0.00 0.00 0.00 70 1009.9
20260506140706 18 75 9.7 22.5 0.00 0.00 0.00 70 1009.9
20260506140606 18 99 9.7 22.5 0.00 0.00 0.00 69 1009.9
20260506140406 18 111 9.7 20.9 0.00 0.00 0.00 70 1009.9
20260506140306 18 145 9.7 19.3 0.00 0.00 0.00 70 1009.9
20260506140205 18 118 9.7 19.3 0.00 0.00 0.00 70 1009.9
20260506140108 18 80 9.7 19.3 0.00 0.00 0.00 70 1009.9
20260506140009 18 112 9.7 19.3 0.00 0.00 0.00 70 1009.9
20260506135907 18 88 11.3 19.3 0.00 0.00 0.00 70 1009.9
20260506135807 18 122 9.7 19.3 0.00 0.00 0.00 69 1009.9
20260506135606 18 116 9.7 25.7 0.00 0.00 0.00 69 1009.9
20260506135507 18 121 9.7 25.7 0.00 0.00 0.00 69 1009.9
20260506135306 18 68 8.0 25.7 0.00 0.00 0.00 69 1010.0
20260506135205 18 86 9.7 25.7 0.00 0.00 0.00 69 1009.9
20260506135105 18 70 8.0 25.7 0.00 0.00 0.00 69 1009.9
20260506135008 18 56 8.0 25.7 0.00 0.00 0.00 69 1009.9
20260506134906 18 90 8.0 25.7 0.00 0.00 0.00 68 1010.0
20260506134705 18 62 8.0 17.7 0.00 0.00 0.00 69 1009.9
20260506134606 18 214 8.0 16.1 0.00 0.00 0.00 68 1009.9
20260506134508 18 137 8.0 24.1 0.00 0.00 0.00 68 1010.0
20260506134306 18 96 8.0 24.1 0.00 0.00 0.00 67 1010.0
20260506134206 18 51 6.4 24.1 0.00 0.00 0.00 66 1009.9
20260506134009 18 113 8.0 24.1 0.00 0.00 0.00 66 1010.0
20260506133906 18 128 8.0 24.1 0.00 0.00 0.00 66 1009.9
20260506133807 18 145 6.4 24.1 0.00 0.00 0.00 66 1010.0
20260506133706 18 91 6.4 24.1 0.00 0.00 0.00 66 1010.0
20260506133606 18 121 6.4 17.7 0.00 0.00 0.00 66 1009.9
20260506133507 18 89 6.4 20.9 0.00 0.00 0.00 67 1009.9
20260506133405 18 81 6.4 20.9 0.00 0.00 0.00 66 1010.0
20260506133305 18 96 6.4 20.9 0.00 0.00 0.00 67 1010.0
20260506133205 18 113 6.4 20.9 0.00 0.00 0.00 67 1010.0
20260506133106 18 73 4.8 20.9 0.00 0.00 0.00 67 1010.0
20260506133009 18 68 6.4 20.9 0.00 0.00 0.00 67 1009.9
20260506132906 18 33 6.4 20.9 0.00 0.00 0.00 67 1009.9
20260506132805 18 232 6.4 20.9 0.00 0.00 0.00 67 1009.9
20260506132705 18 123 6.4 20.9 0.00 0.00 0.00 67 1010.0
20260506132606 18 201 6.4 17.7 0.00 0.00 0.00 67 1010.0
20260506132508 18 3 6.4 17.7 0.00 0.00 0.00 67 1009.9
20260506132407 18 108 4.8 19.3 0.00 0.00 0.00 68 1010.0
20260506132308 18 349 6.4 16.1 0.00 0.00 0.00 67 1009.9
20260506132208 18 60 6.4 16.1 0.00 0.00 0.00 68 1009.9
20260506132106 18 352 6.4 16.1 0.00 0.00 0.00 68 1009.9
20260506132008 18 114 6.4 16.1 0.00 0.00 0.00 68 1009.9
20260506131806 18 63 6.4 20.9 0.00 0.00 0.00 68 1009.9
20260506131705 18 139 6.4 20.9 0.00 0.00 0.00 68 1009.9
20260506131606 18 197 6.4 20.9 0.00 0.00 0.00 69 1010.0
20260506131406 18 197 8.0 20.9 0.00 0.00 0.00 70 1009.9
20260506131306 18 9 8.0 20.9 0.00 0.00 0.00 70 1010.0
20260506131008 18 108 8.0 20.9 0.00 0.00 0.00 69 1010.0
20260506130906 18 56 8.0 20.9 0.00 0.00 0.00 70 1010.1
20260506130806 18 96 8.0 20.9 0.00 0.00 0.00 69 1010.1
20260506130607 18 106 8.0 20.9 0.00 0.00 0.00 68 1010.1
20260506130508 19 62 6.4 20.9 0.00 0.00 0.00 69 1010.2
20260506130405 19 33 6.4 16.1 0.00 0.00 0.00 68 1010.1
20260506130305 19 35 6.4 16.1 0.00 0.00 0.00 68 1010.1
20260506130205 19 102 6.4 19.3 0.00 0.00 0.00 68 1010.1
20260506130106 19 19 6.4 19.3 0.00 0.00 0.00 68 1010.2
20260506130010 19 281 6.4 19.3 0.00 0.00 0.00 68 1010.2
20260506125907 19 203 6.4 19.3 0.00 0.00 0.00 68 1010.2
20260506125806 19 312 6.4 19.3 0.00 0.00 0.00 68 1010.2
20260506125606 19 77 6.4 19.3 0.00 0.00 0.00 67 1010.3
20260506125509 19 293 6.4 19.3 0.00 0.00 0.00 66 1010.3
20260506125407 19 161 6.4 19.3 0.00 0.00 0.00 66 1010.3
20260506125306 19 39 4.8 19.3 0.00 0.00 0.00 66 1010.3
20260506125206 19 330 4.8 19.3 0.00 0.00 0.00 66 1010.3
20260506124907 19 107 4.8 16.1 0.00 0.00 0.00 67 1010.4
20260506124806 19 66 4.8 16.1 0.00 0.00 0.00 67 1010.3
20260506124706 19 187 4.8 19.3 0.00 0.00 0.00 67 1010.3
20260506124607 19 64 4.8 16.1 0.00 0.00 0.00 67 1010.3
20260506124509 19 100 4.8 16.1 0.00 0.00 0.00 67 1010.3
20260506124407 19 29 4.8 16.1 0.00 0.00 0.00 67 1010.3
20260506124306 19 58 6.4 20.9 0.00 0.00 0.00 66 1010.3
20260506124205 19 67 6.4 20.9 0.00 0.00 0.00 67 1010.4
20260506124105 19 37 4.8 20.9 0.00 0.00 0.00 67 1010.4
20260506124008 19 358 6.4 20.9 0.00 0.00 0.00 67 1010.4
20260506123807 18 69 6.4 20.9 0.00 0.00 0.00 67 1010.3
20260506123707 18 91 6.4 22.5 0.00 0.00 0.00 67 1010.3
20260506123607 18 54 6.4 22.5 0.00 0.00 0.00 67 1010.3
20260506123508 18 98 6.4 22.5 0.00 0.00 0.00 67 1010.3
20260506123406 18 150 6.4 22.5 0.00 0.00 0.00 67 1010.3
20260506123305 18 40 6.4 22.5 0.00 0.00 0.00 67 1010.4